GFSNW_250_spd_078.txt.gz
Wind_Speed
90 95 96 102 104 121 118 105 96 83 78 80 70 63 58 54 50 46 37 30 25 16 12 15 12 10 8 10 10 13 16 23 26 30 35 41 44 43 44 47 48 50 50 54
90 93 95 103 97 116 131 117 94 78 73 74 66 60 54 49 45 42 36 25 19 14 9 11 14 15 13 13 8 10 12 12 16 21 25 30 31 34 36 35 36 38 39 43
90 90 99 109 102 106 119 115 99 79 73 69 62 55 49 46 40 37 33 25 15 11 6 9 12 14 14 15 14 13 13 13 12 12 16 17 21 21 24 26 29 32 36 40
86 93 101 107 107 115 113 110 92 80 69 67 57 50 44 41 36 32 28 23 15 9 6 5 8 11 14 15 14 14 12 12 12 12 15 15 17 18 20 24 27 30 36 38
88 90 99 104 110 123 111 103 85 66 64 65 55 48 40 35 31 29 24 19 13 7 3 2 3 7 11 12 13 14 13 13 13 13 14 17 20 20 22 23 25 28 34 38
93 87 96 94 107 119 118 105 78 64 63 64 54 46 39 30 26 24 21 15 11 6 3 1 4 7 10 13 16 17 17 16 16 17 19 20 23 22 21 23 24 27 30 37
88 80 101 110 104 112 105 97 85 73 64 58 52 43 38 29 24 21 18 13 9 7 4 4 6 8 11 13 15 17 20 21 21 21 20 21 23 25 26 27 28 30 32 34
86 85 103 105 120 110 108 97 80 70 61 53 48 40 36 27 22 20 17 13 10 11 9 8 8 9 12 13 14 16 18 23 26 27 25 24 24 26 28 30 32 31 35 37
91 91 98 109 109 104 103 99 91 74 56 49 42 37 33 27 21 18 18 14 13 13 12 11 11 11 11 11 13 15 17 19 22 25 29 32 29 25 26 26 27 34 35 39
89 107 104 113 105 111 101 95 85 67 58 45 39 34 30 24 21 18 18 17 15 14 13 14 14 12 12 13 14 15 16 18 20 21 24 25 27 26 26 27 28 29 32 37
98 99 103 111 108 107 100 98 84 64 57 47 40 32 26 22 21 19 18 19 17 16 17 16 16 17 16 16 16 17 18 19 19 19 21 22 24 24 26 28 29 30 32 32
95 102 101 101 111 107 109 104 81 59 51 48 42 33 27 22 20 20 19 18 19 19 18 18 17 18 20 21 21 21 21 22 22 22 22 23 24 25 29 29 30 33 32 33
97 93 101 105 105 101 101 96 73 55 48 44 41 35 27 21 19 21 20 20 20 22 21 21 20 20 22 24 24 24 23 23 22 23 23 24 24 23 24 28 32 33 33 34
96 101 97 102 104 95 103 94 74 59 49 41 38 34 27 23 20 19 23 20 20 22 23 24 24 23 23 24 24 25 24 25 24 23 23 22 23 23 24 25 27 30 35 37
104 113 85 109 104 110 104 92 62 57 49 41 36 31 27 22 19 21 23 21 21 21 24 25 27 26 25 25 25 26 25 25 24 24 20 20 18 19 20 21 23 26 28 31
108 99 95 102 107 118 105 89 58 52 46 38 35 28 26 23 21 23 23 22 22 23 23 25 27 29 28 27 28 27 26 27 26 24 23 21 20 20 18 18 18 19 20 22
131 111 83 111 106 104 119 78 56 49 44 36 34 28 26 23 22 23 25 24 23 23 23 26 25 29 32 30 31 30 31 31 30 30 28 27 24 24 23 23 23 23 22 22
114 107 108 101 102 115 124 80 62 50 42 35 33 29 25 23 22 23 24 24 24 25 25 26 26 27 33 38 29 35 37 36 35 35 35 32 30 30 29 29 30 30 30 30
129 106 112 105 110 108 100 72 63 51 40 34 31 29 23 21 21 22 23 23 25 24 27 26 26 29 34 36 35 40 42 41 40 41 40 38 34 33 32 31 30 32 34 34
123 107 101 101 114 117 75 66 59 48 38 33 30 28 23 21 22 23 24 23 23 26 27 26 28 33 31 33 38 44 46 46 45 44 44 43 38 36 35 32 30 32 35 37
128 105 91 117 112 101 76 62 52 43 37 31 30 27 24 23 24 25 24 24 24 26 25 26 29 36 28 34 36 43 47 46 46 47 46 44 42 39 37 34 30 30 33 36
124 102 106 108 116 90 70 56 46 39 35 31 28 27 25 24 26 26 24 24 24 28 27 25 31 30 28 32 34 36 43 44 48 47 45 45 44 42 40 37 33 31 34 37
113 95 95 105 105 75 63 51 42 36 33 31 27 25 24 24 25 26 24 24 27 26 28 30 30 29 28 29 32 34 40 44 45 45 44 44 45 45 44 41 39 34 38 42
96 111 98 106 83 70 56 45 39 34 31 30 28 25 24 24 25 25 25 25 26 29 30 29 27 25 25 26 29 32 36 39 42 44 43 43 40 41 43 44 45 43 40 45
102 89 107 81 72 62 50 41 38 33 30 30 28 25 24 24 25 25 25 27 30 31 29 27 23 25 25 26 27 30 33 37 39 40 43 44 42 40 39 42 44 46 47 46
79 106 79 69 65 53 44 38 37 31 30 29 28 26 25 24 25 25 28 29 30 29 27 23 25 27 27 27 26 27 31 35 38 39 39 38 38 41 43 45 46 46 47 49
99 82 68 65 57 46 41 37 36 32 30 30 28 27 25 26 26 29 29 30 28 26 25 24 27 27 26 26 27 27 29 31 33 35 35 35 35 36 40 44 45 47 49 49

GFSNW_250_spd_081.txt.gz
Wind_Speed
87 87 91 88 88 101 96 97 99 96 90 87 78 72 62 53 48 43 38 37 33 29 23 15 11 12 15 12 13 16 19 27 32 36 41 43 42 46 46 47 50 53 54 54
85 89 89 87 88 96 98 92 99 102 90 88 83 70 60 52 43 39 34 32 28 24 18 14 11 10 12 16 15 16 17 21 27 29 32 33 34 34 38 41 40 40 42 44
87 88 91 87 89 98 95 94 97 98 95 90 82 74 59 51 40 34 30 28 25 18 15 10 7 11 13 17 18 19 19 19 23 27 30 33 33 33 36 36 33 32 34 37
88 88 89 91 96 104 91 105 105 90 81 75 71 64 52 45 39 31 26 24 21 18 11 6 4 8 13 16 19 22 22 21 20 18 20 21 22 25 28 28 30 32 34 36
88 86 89 98 103 102 93 104 105 91 89 81 63 60 50 41 35 30 22 20 19 14 7 4 1 6 11 14 16 20 22 22 25 21 22 24 26 28 29 30 32 31 34 36
87 85 88 97 104 95 102 98 100 98 81 76 64 54 47 38 32 27 23 18 16 10 6 3 2 6 9 12 15 17 21 24 24 23 21 20 22 23 24 27 29 30 31 33
90 86 93 97 99 92 109 98 90 98 88 78 67 50 41 35 31 24 20 18 16 11 9 5 5 6 8 11 14 16 18 19 22 20 20 21 22 22 21 23 25 26 29 31
93 88 93 94 102 104 104 104 101 98 89 78 63 50 37 31 27 23 19 16 17 15 10 7 7 8 10 13 15 17 19 21 21 20 24 25 28 28 28 27 27 27 28 28
98 92 96 100 105 108 102 99 103 94 75 74 54 43 36 29 23 22 18 15 17 17 12 10 9 10 12 14 16 19 20 22 23 24 28 29 29 29 31 31 32 33 33 31
103 96 97 104 108 97 104 107 108 88 79 66 51 40 33 28 22 19 19 16 15 17 14 13 13 13 14 15 18 19 21 22 23 26 27 27 29 30 32 32 32 32 32 32
105 95 98 105 101 110 109 109 92 90 82 62 46 40 33 25 21 18 18 17 15 18 18 16 16 16 16 17 17 18 19 19 21 22 23 25 26 24 26 27 29 30 30 32
108 98 100 112 102 93 115 105 97 95 74 54 46 39 32 23 20 18 18 18 18 19 18 17 18 19 19 20 19 19 19 19 20 21 21 24 26 27 29 28 29 29 28 27
112 103 101 114 118 108 106 91 93 83 70 48 43 36 32 25 19 19 18 17 19 20 19 20 19 21 21 21 22 22 21 21 22 22 23 23 24 27 28 28 27 29 30 30
115 108 105 112 114 109 111 100 92 85 64 48 43 35 29 24 19 17 19 18 18 20 22 21 22 22 21 21 23 23 24 24 24 24 23 24 22 22 23 25 30 31 31 33
116 112 104 109 114 93 109 95 109 86 60 50 43 35 29 23 20 18 20 20 20 21 23 22 22 24 24 21 22 23 25 25 25 22 21 20 22 25 25 26 26 29 33 35
122 118 113 110 112 115 108 91 112 84 71 58 45 36 28 21 19 20 20 20 20 23 23 24 24 25 25 25 25 24 26 28 26 23 24 21 21 22 24 24 25 26 27 29
121 122 122 108 115 108 92 108 101 86 70 49 46 37 28 20 18 21 21 21 20 24 25 27 25 25 27 27 25 27 30 31 30 28 27 25 24 24 22 21 19 19 19 20
125 126 127 114 121 114 104 100 102 96 78 53 45 37 29 22 20 19 20 21 22 25 25 25 25 27 29 25 27 30 33 36 35 33 32 29 28 28 26 25 23 22 20 19
128 129 130 124 123 129 112 94 104 92 81 57 45 37 30 23 22 21 21 22 24 24 25 25 27 29 33 23 25 35 35 37 39 39 38 36 34 32 31 29 27 26 25 24
128 129 130 136 141 104 96 111 93 119 79 56 45 36 29 22 22 23 24 22 23 26 26 26 29 32 29 26 25 33 38 37 40 43 43 40 39 37 35 33 31 30 29 28
131 132 136 133 114 109 100 96 107 116 74 56 45 37 30 22 21 23 26 26 26 25 26 29 31 30 27 29 28 28 32 38 41 40 43 42 41 38 38 36 34 32 30 29
133 135 133 129 131 120 103 119 115 109 65 56 43 37 31 25 20 22 23 25 26 26 27 30 33 28 25 28 29 29 31 32 35 40 41 44 46 42 41 41 38 35 32 32
135 135 135 135 132 118 129 106 116 102 66 55 41 36 33 27 24 22 21 24 26 28 28 31 27 25 27 27 29 31 32 34 35 38 45 44 44 45 46 44 42 40 38 35
139 136 138 135 120 119 104 111 120 74 62 55 42 34 32 27 27 24 23 26 25 28 28 26 28 26 26 25 25 27 29 30 32 36 43 45 42 43 45 47 45 43 41 40
142 145 130 129 107 117 130 114 120 77 60 52 41 33 31 28 27 26 26 26 27 27 28 27 23 25 26 25 25 26 26 27 29 33 40 44 42 41 39 40 41 43 44 44
148 145 128 106 102 106 128 135 104 64 56 49 41 32 31 28 28 28 29 28 27 28 27 24 22 27 27 25 24 24 24 24 25 29 36 40 43 42 39 38 39 40 41 42
149 132 121 84 85 111 131 107 72 59 50 45 39 32 31 30 30 32 31 29 28 27 25 24 24 28 26 23 23 24 24 24 25 28 32 36 38 38 38 40 43 44 45 45

GFSNW_250_spd_084.txt.gz
Wind_Speed
79 84 84 86 92 98 98 106 102 98 107 110 109 102 95 76 69 52 40 37 32 30 28 24 19 12 5 8 11 17 23 30 34 45 49 50 51 55 52 50 54 55 57 60
79 83 85 88 89 88 93 101 104 92 105 109 110 101 86 72 59 46 35 32 28 26 23 20 15 10 6 5 10 16 21 26 29 35 42 45 43 44 41 45 47 47 47 52
81 82 84 86 87 89 98 102 102 98 103 103 102 96 84 72 53 47 32 27 23 21 19 17 14 7 5 4 11 14 19 22 29 32 39 44 42 35 33 31 34 39 44 48
81 82 84 86 89 89 94 96 99 110 107 105 97 93 79 65 52 43 31 24 19 18 16 13 11 4 5 8 12 14 17 19 23 26 30 34 33 33 33 33 37 39 39 42
83 84 85 86 91 89 94 100 96 108 103 101 95 86 79 67 52 40 28 24 15 14 13 10 7 3 4 9 15 18 18 20 21 23 24 24 28 31 32 31 34 35 37 37
84 84 85 87 91 89 97 99 96 95 101 100 90 83 76 64 51 37 28 23 17 11 10 8 5 4 6 10 14 18 20 24 24 23 24 24 26 27 28 33 33 33 33 33
85 87 89 89 89 92 98 102 103 93 104 103 91 83 74 57 49 37 24 22 18 12 9 10 7 7 9 12 15 18 22 22 23 24 25 26 27 27 29 30 32 34 31 32
88 90 91 92 95 93 97 104 99 93 99 105 95 86 76 57 44 37 25 19 17 14 10 11 10 10 12 14 17 21 23 27 26 24 24 26 30 31 30 31 33 32 32 31
92 94 95 97 95 97 101 104 105 92 104 103 98 87 76 56 42 33 25 20 18 14 13 12 12 12 14 16 19 21 24 25 27 28 27 27 27 27 28 28 28 29 31 32
97 98 100 98 98 101 101 107 99 108 101 103 101 89 74 57 42 33 25 21 19 16 14 12 13 14 14 17 19 22 23 26 28 29 29 30 31 32 32 32 32 33 33 33
101 102 104 101 98 100 101 107 93 95 106 103 95 80 70 55 45 33 26 19 20 19 16 13 14 15 17 17 19 21 22 25 26 27 29 33 33 33 35 35 35 36 35 33
104 105 106 103 99 102 102 105 103 101 99 103 86 78 65 50 41 32 26 19 20 22 20 17 15 15 17 18 19 21 23 23 24 25 25 27 28 29 30 31 30 31 33 32
106 108 107 107 103 103 105 106 100 106 105 98 91 77 68 50 37 30 24 19 20 21 22 19 19 17 17 19 21 20 21 22 23 24 24 25 25 25 28 30 29 29 29 30
109 109 109 110 106 102 101 105 104 105 93 106 96 76 64 49 38 27 24 20 20 19 24 22 21 19 18 20 21 22 22 22 23 22 20 20 22 23 25 27 29 29 27 29
108 109 110 111 109 103 106 110 106 98 100 100 95 78 65 51 38 30 24 19 20 22 24 24 25 23 21 20 19 23 24 24 25 24 24 25 24 25 25 25 27 29 30 29
108 112 112 114 111 105 110 111 112 107 95 106 86 86 63 51 39 32 27 21 20 22 23 26 27 25 24 22 22 24 24 25 26 26 25 23 21 21 23 26 28 29 29 31
108 111 115 117 112 109 108 104 106 113 95 103 94 88 65 47 38 30 28 23 19 21 23 25 27 27 27 24 26 27 26 26 28 28 27 25 23 22 20 21 24 26 28 29
112 113 117 118 114 112 112 102 100 106 103 97 108 96 72 49 39 30 25 23 23 23 23 25 27 29 28 24 29 28 29 29 29 30 29 28 26 25 23 22 22 22 23 25
113 114 118 120 119 118 114 109 104 111 108 106 96 94 80 52 40 33 25 22 23 25 24 25 29 31 30 24 29 31 33 32 32 31 33 33 31 30 29 27 25 23 21 20
115 116 117 120 123 121 116 110 114 126 113 108 103 91 79 49 44 35 27 23 21 24 25 27 30 31 26 25 30 33 34 33 34 35 35 35 34 34 31 30 28 26 25 23
115 118 119 121 125 125 125 123 114 115 123 108 109 119 91 51 45 35 29 26 24 22 26 28 31 27 29 30 29 32 34 35 32 34 37 37 35 35 34 33 31 30 29 27
118 119 121 125 126 123 121 110 113 124 127 120 113 102 71 45 39 35 30 25 25 23 24 28 30 27 29 30 30 30 32 35 35 33 31 33 36 37 38 36 36 34 34 32
119 121 125 128 129 123 125 127 125 129 124 128 104 97 79 49 39 33 27 25 27 26 25 28 28 28 30 31 31 31 31 31 32 34 34 33 33 38 41 41 40 39 37 36
120 122 128 131 131 124 122 122 127 133 135 103 134 119 72 53 40 33 27 29 28 28 29 26 26 28 27 29 32 31 30 31 32 33 34 36 38 38 40 42 42 41 40 38
127 127 130 134 130 126 126 112 134 139 107 122 108 113 60 50 42 34 29 30 29 29 29 29 28 27 28 30 29 28 30 32 32 32 30 31 34 39 40 41 42 41 40 39
131 132 131 129 129 126 126 119 135 125 132 124 124 85 59 49 41 36 31 30 31 29 30 29 26 28 30 28 27 27 27 28 29 29 28 27 28 32 36 39 39 37 38 40
132 132 132 136 131 123 126 108 130 132 128 100 115 72 57 47 40 37 33 29 30 30 29 28 29 31 29 27 27 27 27 29 28 27 27 27 27 30 33 36 37 37 38 38

GFSNW_250_spd_087.txt.gz
Wind_Speed
65 69 74 77 83 88 90 97 96 101 102 101 103 107 105 99 92 74 62 48 38 36 32 26 24 20 14 9 4 9 15 20 29 40 47 52 52 54 52 49 53 53 55 58
65 69 74 76 83 86 91 96 93 99 98 100 101 102 100 98 83 69 58 47 36 33 31 25 24 21 14 8 1 6 12 21 25 31 35 39 43 47 47 49 52 52 53 54
64 70 72 76 82 87 90 91 94 95 106 100 101 106 101 91 79 66 54 46 34 29 29 23 21 20 14 9 2 6 13 20 27 31 37 41 43 45 44 46 46 47 47 50
65 69 72 77 82 86 88 91 94 95 102 98 101 105 103 88 80 66 53 45 34 25 25 22 18 17 15 9 3 4 10 18 26 28 33 37 38 40 42 39 44 46 46 46
67 68 72 77 83 86 89 91 91 99 102 101 98 100 94 88 78 66 54 44 33 23 22 19 15 13 13 9 3 4 10 16 18 23 24 23 25 24 24 25 27 30 37 41
67 69 71 77 82 87 89 89 92 100 102 101 102 98 100 86 73 67 52 42 34 22 20 17 14 9 8 7 4 2 8 13 19 22 21 19 19 21 24 26 29 32 33 39
69 70 74 78 81 88 89 91 94 98 105 98 97 93 90 89 72 65 53 41 34 23 18 17 13 9 6 6 4 3 9 12 17 21 25 26 29 28 29 29 30 33 37 41
71 72 76 80 83 88 91 91 95 97 104 98 97 94 90 84 78 68 52 42 30 23 17 16 13 12 10 9 10 11 11 16 17 19 22 24 26 29 31 34 37 38 37 35
75 76 79 81 82 88 92 93 96 98 101 110 94 96 88 80 78 66 52 40 32 25 16 14 13 12 12 12 14 14 16 17 20 21 20 22 25 26 27 28 30 31 31 29
78 80 82 84 84 90 92 95 100 100 100 104 97 95 91 82 77 66 49 37 31 25 18 14 14 12 14 14 16 18 21 22 22 23 23 25 24 25 26 29 31 31 31 31
81 83 86 88 87 91 92 99 99 100 99 101 96 92 91 81 74 66 50 37 30 27 20 16 16 13 14 17 17 20 22 25 27 27 28 29 28 29 30 30 32 32 32 34
84 86 90 91 91 91 95 99 101 100 104 92 102 98 88 78 73 57 49 37 30 27 22 17 17 16 15 16 18 21 24 24 25 29 30 30 32 33 35 36 35 36 35 34
87 89 92 93 94 95 97 99 101 99 103 93 105 103 93 86 73 54 44 36 30 25 24 19 18 17 17 17 18 20 22 23 24 24 27 29 29 28 29 30 32 32 31 30
91 91 94 95 97 99 101 102 105 100 98 93 101 106 90 79 71 59 44 36 30 26 23 21 20 19 18 19 19 19 21 22 22 23 25 27 28 29 30 30 32 33 33 32
91 94 95 98 100 103 105 105 105 104 100 87 100 112 96 80 74 65 49 36 30 26 24 21 21 21 20 21 20 19 20 22 22 24 25 26 26 26 26 27 28 28 30 32
88 95 96 99 103 106 107 108 103 103 99 84 95 106 111 91 77 74 53 36 30 24 23 22 21 22 23 23 23 22 22 23 23 25 26 25 25 26 26 26 26 27 28 31
90 95 96 100 105 107 109 108 107 97 98 96 104 95 98 86 81 84 60 38 30 25 24 24 23 24 24 25 26 26 26 26 26 24 25 25 25 25 24 24 24 27 29 28
91 94 100 103 106 109 112 113 109 102 95 108 103 102 92 88 98 89 64 42 31 27 23 23 23 25 25 27 29 27 28 29 28 25 23 24 26 26 27 26 23 23 26 29
91 99 102 103 106 108 113 113 111 103 97 89 101 98 105 110 86 93 69 46 34 29 25 23 24 25 26 27 29 28 30 30 30 29 26 25 25 27 28 28 25 23 21 21
97 101 101 102 106 110 113 112 110 107 108 101 101 104 111 102 87 101 86 49 34 30 28 26 25 22 21 25 29 30 30 31 31 30 29 27 27 25 27 29 27 25 23 22
102 101 99 103 110 110 115 117 112 108 114 110 105 113 110 119 90 100 78 44 33 29 27 28 28 19 20 26 29 31 32 31 31 31 30 28 27 27 27 27 29 30 27 27
102 102 105 108 112 115 117 118 114 107 113 113 119 118 119 107 100 100 64 40 33 29 27 27 30 18 23 25 27 29 32 32 33 32 30 30 29 29 30 31 31 33 34 32
104 105 107 111 114 119 122 121 115 112 116 117 124 118 112 103 103 98 62 41 35 30 27 30 27 22 26 27 27 28 29 31 33 34 33 32 32 32 32 33 35 36 36 36
105 109 114 116 121 122 123 119 114 118 117 114 124 123 125 111 103 96 74 47 36 31 29 28 25 24 27 27 26 25 26 28 29 31 34 35 35 35 36 36 37 39 39 39
113 116 117 121 123 122 121 121 118 123 83 123 123 124 83 116 95 91 62 47 39 33 29 27 27 25 26 27 27 25 27 29 31 33 34 34 35 36 38 38 39 40 40 41
117 121 121 123 122 124 122 122 122 122 105 119 124 124 121 112 99 70 46 41 36 31 28 28 29 25 24 27 28 28 29 31 32 32 33 34 34 34 35 36 38 40 41 40
121 123 124 124 122 121 125 125 119 113 117 121 124 125 120 102 88 61 42 36 34 31 28 30 29 27 29 28 28 29 30 31 31 31 31 30 30 30 31 32 33 34 36 37

GFSNW_250_spd_090.txt.gz
Wind_Speed
52 56 62 64 70 74 80 80 86 91 95 99 103 108 102 101 93 89 79 68 56 48 42 38 30 27 21 14 7 4 10 21 31 40 44 46 49 50 51 50 48 48 53 55
51 55 59 63 68 74 78 79 84 88 93 97 103 108 103 101 94 89 81 67 55 48 41 36 31 28 20 15 9 1 12 19 27 28 29 33 38 42 44 45 47 48 49 51
51 54 58 62 67 73 75 79 83 87 93 91 102 109 105 99 97 93 79 68 52 45 40 34 31 29 22 14 10 3 8 18 24 33 38 38 36 39 41 42 43 45 46 50
51 53 58 62 67 71 74 78 85 87 92 90 100 109 115 101 100 93 78 69 53 43 39 31 29 27 24 18 12 4 4 13 26 34 39 43 45 47 45 43 45 47 47 50
51 53 59 63 67 70 73 78 84 86 91 97 101 106 109 101 102 87 83 64 52 42 37 31 26 25 23 18 14 6 2 9 16 24 32 37 39 39 45 49 46 41 44 48
50 53 58 64 67 70 74 81 84 87 92 95 100 103 107 105 99 89 80 67 50 40 34 29 23 22 21 17 13 9 2 6 15 21 26 28 32 35 35 37 40 42 42 48
51 53 58 64 67 71 74 80 82 90 92 95 101 99 100 97 91 87 83 70 51 40 32 29 22 19 18 17 13 9 6 1 10 15 21 26 27 26 29 33 34 34 38 39
50 55 59 64 65 72 75 80 82 87 92 98 98 95 96 94 89 88 81 69 54 40 31 26 21 17 16 15 14 10 5 1 4 10 16 21 26 28 28 29 33 34 36 36
53 58 60 63 65 69 74 80 84 89 92 95 99 91 97 93 88 81 79 71 54 41 31 25 21 16 14 13 13 11 7 3 3 7 12 16 19 24 28 31 33 34 37 39
58 61 65 65 65 70 73 79 84 86 91 95 98 88 97 90 79 77 78 69 52 42 32 24 21 18 13 13 12 13 11 9 8 6 9 12 14 16 20 23 27 30 32 32
61 65 68 68 69 71 75 78 83 87 91 94 96 97 94 95 81 76 79 69 57 42 32 26 20 17 14 12 12 13 13 12 11 13 15 16 17 19 19 21 23 24 25 27
64 69 72 72 73 74 77 80 84 88 89 92 95 101 90 101 86 75 75 70 55 41 31 26 23 18 15 15 14 13 16 16 18 18 18 18 20 21 23 25 26 28 30 31
67 72 73 74 76 76 77 80 84 88 89 92 95 99 97 97 88 74 68 68 57 40 31 25 22 21 18 16 15 14 15 17 18 21 22 24 25 25 28 29 30 31 32 32
67 72 74 79 79 80 80 83 85 89 91 94 97 100 104 97 97 80 74 66 64 43 33 27 23 20 20 18 17 15 15 18 19 21 24 26 27 29 30 29 29 30 30 30
68 71 78 82 83 81 83 86 88 91 94 96 98 103 107 100 102 88 81 77 67 57 37 28 24 21 19 19 19 18 18 18 18 22 24 26 27 26 28 29 30 32 33 33
68 74 78 84 85 83 86 89 92 92 95 98 101 106 110 103 95 88 80 83 65 63 45 30 25 23 22 20 20 21 22 21 20 21 21 22 23 24 26 26 27 28 29 30
71 77 82 85 86 87 89 92 94 94 96 98 102 105 108 107 92 86 94 97 78 59 45 34 26 24 24 23 23 24 22 22 22 21 22 21 22 25 26 26 27 29 30 30
74 79 80 85 88 90 93 95 97 100 99 101 104 107 111 108 94 81 100 90 84 59 42 34 28 26 25 24 26 25 26 25 25 24 24 23 22 23 26 27 28 28 28 29
74 78 83 87 89 92 95 98 101 104 103 106 109 110 114 112 98 81 89 86 82 65 47 31 29 27 25 23 27 26 28 28 28 27 26 26 25 25 23 24 26 27 26 26
74 80 85 88 89 94 97 100 104 105 107 109 110 114 116 110 93 92 83 87 82 66 51 34 29 26 23 24 27 27 28 29 29 29 28 27 27 27 26 24 23 25 26 27
77 81 85 90 92 94 96 100 104 106 108 112 115 118 118 108 102 95 87 77 76 59 46 35 31 24 23 26 28 29 30 31 32 31 30 28 27 26 25 27 26 25 26 29
80 83 88 92 93 95 98 103 106 108 109 114 116 118 111 100 104 102 88 84 83 61 43 35 33 22 20 28 30 31 31 32 32 32 31 29 29 29 29 29 29 30 31 32
85 88 92 92 95 99 102 105 109 110 115 118 118 115 114 102 113 111 98 82 84 66 45 35 32 23 23 28 32 32 32 33 33 32 31 32 32 32 32 32 32 32 34 36
90 91 95 96 97 100 106 108 111 115 117 119 119 116 109 110 117 112 102 83 72 79 48 35 30 26 25 28 32 33 34 34 32 32 33 34 33 33 33 34 35 35 34 35
94 96 97 99 100 104 108 112 114 118 121 121 120 116 98 112 113 116 87 75 71 67 43 36 31 28 27 29 32 33 33 32 32 33 33 34 34 34 33 34 34 34 35 36
97 100 101 102 106 108 111 114 117 121 123 123 121 111 107 110 116 113 107 92 62 54 45 35 31 30 29 28 32 33 35 35 35 35 34 34 34 33 33 33 34 35 36 36
102 104 106 107 110 112 115 118 122 125 126 122 110 97 113 110 120 121 112 79 55 46 45 35 31 31 31 29 34 35 36 37 37 37 35 34 33 33 34 34 34 34 34 34

GFSNW_250_spd_093.txt.gz
Wind_Speed
46 47 49 54 57 57 62 65 71 77 80 87 90 101 103 106 101 93 93 88 77 60 48 36 32 28 24 18 12 3 9 19 26 28 31 34 40 48 51 54 56 58 61 63
42 47 49 51 54 56 60 63 70 74 79 85 88 98 105 108 105 97 95 90 78 62 49 40 33 27 24 20 14 6 6 12 19 22 28 33 40 46 50 54 56 57 58 60
42 47 47 47 52 54 58 60 68 71 78 82 87 95 104 110 111 99 95 95 79 63 51 43 33 26 23 20 15 8 2 9 17 24 34 39 43 48 51 50 50 52 53 55
44 44 43 44 49 53 56 62 67 71 76 80 86 94 101 110 117 105 96 95 81 65 52 45 35 28 22 20 17 9 2 8 15 21 32 42 49 52 51 49 51 51 52 55
41 42 41 44 48 51 55 60 66 70 74 78 83 89 97 108 115 110 101 96 82 66 54 44 37 29 24 20 16 11 4 5 12 19 29 40 47 51 53 52 51 50 51 51
40 40 42 43 47 49 56 61 66 70 75 78 84 90 97 105 116 115 102 96 82 71 53 43 37 29 24 19 15 11 7 1 11 16 23 33 42 48 50 50 49 50 51 54
38 40 42 45 45 48 54 61 66 70 74 79 83 89 95 102 112 117 104 94 84 75 54 41 36 30 25 20 15 12 8 2 5 14 20 26 32 40 46 49 48 46 48 49
37 39 43 44 47 51 56 61 65 70 75 79 84 91 93 99 106 111 99 98 91 79 61 42 33 31 26 20 15 12 10 6 4 11 16 22 29 36 40 44 46 46 46 45
37 39 40 45 48 53 58 61 65 71 74 77 81 88 92 99 103 111 107 94 85 74 69 48 35 29 26 23 15 11 8 6 4 7 17 23 28 32 35 38 38 39 39 43
33 36 38 45 50 53 60 62 65 72 74 79 82 88 90 97 101 108 107 96 80 82 66 49 38 29 25 23 18 12 6 5 2 3 10 20 26 32 36 38 39 42 43 44
34 36 40 47 51 53 61 61 66 71 74 77 82 88 91 95 101 106 106 94 89 79 72 58 37 29 23 22 20 15 9 6 4 3 4 9 14 20 26 31 33 36 37 38
36 37 43 47 52 56 60 62 68 70 73 77 81 86 89 95 100 108 106 95 86 75 73 62 43 30 23 21 19 17 14 9 8 7 7 6 7 10 12 17 19 21 24 25
38 40 46 49 55 59 62 62 68 71 73 76 80 85 88 95 98 106 108 93 85 77 71 68 53 33 23 19 19 18 16 14 11 11 11 12 13 13 14 14 16 18 18 18
40 43 47 54 59 62 62 63 67 71 74 77 80 85 92 95 98 104 105 97 83 76 74 67 60 42 28 21 17 19 20 18 16 16 16 17 18 19 19 19 20 22 23 23
43 44 51 59 62 65 65 65 68 71 74 79 82 87 92 97 100 101 105 91 86 78 72 66 62 50 32 23 20 18 21 22 20 18 19 20 21 22 22 23 26 27 26 25
44 50 55 61 63 66 67 68 70 74 76 79 83 87 91 96 101 104 103 97 88 81 69 66 59 50 38 25 21 22 21 24 24 22 21 21 21 22 23 26 28 28 30 30
50 53 58 59 62 66 70 70 73 76 77 78 84 88 91 95 102 104 106 107 91 79 70 68 61 51 41 31 24 23 23 24 27 27 25 23 22 23 25 26 26 27 27 27
51 55 57 59 64 67 72 75 77 79 80 83 86 89 92 98 103 105 107 107 86 79 70 65 61 56 40 32 29 25 24 25 27 29 28 26 25 25 24 25 25 26 27 27
47 52 57 62 66 70 74 78 80 83 84 86 89 92 94 99 102 106 111 106 91 89 74 68 64 57 40 29 30 28 26 26 25 28 30 29 27 27 26 25 25 25 26 27
47 53 59 63 67 73 79 80 79 84 87 90 93 96 96 101 104 106 110 109 98 86 76 58 59 62 44 32 30 31 28 29 28 28 30 31 30 29 29 28 28 27 26 26
49 56 61 64 72 78 80 81 81 84 88 91 96 98 101 102 105 108 112 110 102 101 78 69 59 58 42 35 30 31 28 30 31 31 31 32 32 31 31 31 31 32 32 30
54 57 63 71 76 80 81 82 83 86 88 93 97 102 105 105 109 112 114 118 100 92 84 66 58 59 47 36 33 32 31 30 32 33 33 32 32 33 34 35 35 35 34 35
55 62 70 73 77 82 83 85 87 88 92 95 99 104 107 109 113 116 115 114 103 94 84 74 58 58 48 38 34 31 32 31 31 34 34 34 35 36 37 36 36 36 36 36
62 68 72 75 81 85 86 88 90 92 94 98 102 106 110 112 115 117 121 115 100 96 90 74 66 56 45 39 34 35 35 33 33 34 35 37 37 36 37 36 35 36 37 37
68 71 75 80 85 87 89 91 94 95 98 101 103 109 113 115 115 118 123 108 99 105 93 81 70 56 45 41 37 34 38 36 32 34 37 37 38 38 36 35 36 36 36 35
72 74 80 84 88 92 92 94 97 99 101 105 107 112 115 117 117 126 113 99 108 102 95 87 72 57 48 42 39 35 36 37 35 35 37 38 37 38 36 36 37 35 35 36
76 81 86 88 92 95 96 98 100 103 107 108 111 115 117 119 122 127 104 108 105 106 103 86 76 59 51 44 41 36 34 38 38 38 39 39 38 37 37 36 36 36 36 35

GFSNW_250_spd_096.txt.gz
Wind_Speed
32 35 42 42 39 44 48 52 53 58 62 68 76 80 86 92 100 90 75 79 73 68 62 48 36 29 27 23 15 10 4 3 15 21 26 32 50 55 59 62 65 67 70 73
32 34 37 38 36 41 46 49 51 55 61 67 74 81 87 90 101 100 78 82 76 72 63 49 39 30 26 23 17 11 5 5 13 20 24 28 49 56 58 61 64 65 67 69
33 35 37 36 35 38 44 47 50 54 60 65 73 78 86 92 101 107 88 84 77 70 64 51 40 31 28 24 20 12 7 5 11 20 24 35 54 57 58 60 62 63 65 67
34 34 35 31 34 38 43 45 47 53 59 64 72 78 85 93 98 106 99 82 83 71 69 57 43 32 27 25 20 13 8 5 12 23 28 42 51 55 58 59 60 62 64 64
32 32 30 31 36 38 42 43 45 50 57 63 70 77 84 92 98 102 108 90 80 74 69 60 45 35 26 23 21 13 9 5 10 24 33 44 50 54 57 59 62 62 63 64
32 30 29 32 36 37 39 41 45 50 57 62 69 75 80 88 93 101 109 103 82 76 71 63 53 38 27 21 18 14 8 4 10 21 31 42 50 56 59 58 59 60 60 62
32 30 29 31 34 36 37 39 44 50 56 60 68 74 80 85 93 97 102 111 94 78 70 66 58 45 31 22 17 14 8 4 7 17 27 36 46 53 55 59 60 58 58 59
31 28 29 31 33 36 36 40 45 50 55 58 66 72 76 83 89 96 100 106 102 82 76 67 65 52 37 24 18 14 9 4 6 11 20 28 37 46 51 53 56 57 58 58
29 30 30 31 31 34 35 40 44 49 54 57 65 72 75 82 87 95 98 103 99 89 80 73 62 56 45 30 19 14 10 4 3 7 15 22 30 39 45 50 53 53 53 54
31 30 30 32 33 35 35 39 44 49 54 58 64 70 74 79 85 91 95 100 100 95 86 78 64 55 48 35 24 14 10 5 2 4 9 16 24 33 38 43 45 47 49 50
29 31 29 32 35 37 36 39 44 50 51 57 64 69 74 78 85 88 94 97 104 101 94 84 67 68 52 38 29 18 10 4 2 2 6 10 18 24 32 37 41 42 44 46
30 29 28 32 37 38 37 41 45 49 50 57 65 68 72 77 82 88 93 98 101 108 103 91 76 65 59 43 29 23 15 10 6 8 7 9 12 17 22 27 33 38 42 45
28 26 29 35 38 39 40 44 47 49 51 55 61 66 71 75 79 85 92 96 103 105 103 100 85 71 63 50 34 24 19 15 12 10 10 12 13 14 17 23 29 33 36 37
25 26 33 36 37 40 45 46 48 50 50 55 60 64 70 74 80 85 91 95 101 104 108 111 93 78 66 57 41 27 22 20 17 16 15 15 16 16 16 15 16 21 23 26
27 30 35 36 36 43 47 49 50 51 51 55 61 65 69 74 80 84 91 95 101 105 106 110 98 79 68 59 54 30 25 23 21 21 19 19 19 19 18 18 18 18 20 19
31 33 36 36 38 45 49 51 52 53 55 57 62 64 67 72 79 84 90 94 101 104 108 104 89 83 69 65 57 39 24 24 25 24 25 23 23 23 23 23 23 23 23 23
32 36 37 37 41 45 49 52 52 53 56 57 63 65 67 72 77 83 89 93 100 103 107 109 93 88 78 69 56 45 30 23 24 27 28 29 27 27 27 26 26 26 27 27
36 36 37 39 41 44 46 50 53 55 57 59 64 67 69 73 80 85 89 95 98 102 107 109 102 92 83 74 63 54 34 26 24 25 29 32 32 30 30 29 29 29 29 29
39 35 38 38 41 45 46 50 55 57 59 63 66 68 71 75 81 85 90 96 96 103 106 110 106 93 80 64 66 56 36 27 25 27 27 31 34 34 33 33 33 32 32 32
37 36 37 39 45 45 48 52 58 59 63 66 69 70 74 78 82 86 91 97 100 104 108 108 107 99 86 68 64 56 40 30 27 27 28 30 34 35 36 35 36 36 36 34
36 33 36 44 44 45 52 57 59 63 66 70 72 73 76 80 84 88 93 98 101 107 107 109 110 101 91 73 63 57 45 33 30 28 29 29 32 36 37 38 38 38 38 38
36 37 41 44 44 51 56 60 63 65 69 73 73 77 79 83 87 90 95 100 104 109 110 111 114 103 94 84 71 59 49 39 33 32 31 31 31 34 38 38 38 40 40 40
36 40 39 48 50 53 59 65 69 68 71 74 76 79 82 87 91 94 99 102 106 111 115 114 114 114 95 91 79 66 55 43 36 34 32 32 32 32 35 39 40 42 43 42
36 39 43 49 53 56 62 68 71 71 74 77 79 82 85 89 94 98 102 105 108 112 114 115 111 115 103 97 89 72 58 45 38 35 35 33 34 33 35 38 40 41 40 41
40 44 48 54 59 62 67 72 73 75 77 80 83 85 88 93 97 101 104 108 111 114 116 112 118 112 103 99 90 80 64 48 40 36 35 34 36 36 35 36 37 38 39 38
46 48 54 60 65 69 72 74 76 77 81 83 87 90 92 95 99 104 108 111 114 117 114 117 116 125 117 101 93 80 63 51 41 38 35 35 36 39 37 36 36 36 36 38
54 56 60 65 70 74 77 78 79 81 83 83 89 94 97 99 103 107 110 112 118 118 117 122 121 123 117 98 90 79 60 51 42 40 37 36 36 38 40 37 35 34 35 37

GFSNW_250_spd_099.txt.gz
Wind_Speed
35 34 33 31 30 31 29 33 39 46 47 52 59 65 73 78 86 91 86 74 76 67 61 54 44 38 32 27 20 13 4 6 13 19 27 32 44 57 59 62 65 69 72 71
35 33 30 32 30 30 28 31 38 43 46 50 58 64 71 75 82 88 91 83 73 69 59 57 45 40 31 26 21 13 6 4 11 16 23 26 37 51 56 60 63 67 69 72
32 31 30 32 29 27 27 31 36 41 42 48 55 62 69 73 81 86 95 88 78 76 59 57 47 41 35 28 22 16 6 4 14 18 20 24 35 51 55 58 62 64 67 70
29 28 30 31 30 27 25 31 34 38 42 47 53 60 67 72 79 83 95 93 84 76 65 57 52 40 35 30 25 18 9 3 13 22 23 21 33 47 52 56 60 62 64 67
27 24 28 32 25 22 27 30 33 36 39 45 51 58 66 69 77 83 92 96 89 75 70 57 50 44 35 30 24 20 10 2 12 23 27 29 39 47 52 56 58 61 64 67
24 24 29 27 23 24 26 30 31 30 38 45 51 57 63 68 75 81 90 99 99 84 74 62 53 49 35 29 24 19 14 3 9 20 30 35 44 49 51 54 57 59 62 65
26 26 27 26 22 23 25 27 28 30 37 45 49 55 60 65 72 77 86 94 99 101 81 70 55 57 41 30 24 18 14 4 6 15 27 37 42 43 47 50 53 56 58 61
29 28 25 23 22 24 24 26 26 29 35 44 48 53 59 65 71 78 84 90 95 101 91 80 63 57 54 38 26 20 14 8 4 10 19 30 39 44 48 51 53 55 57 59
32 30 26 26 25 24 25 25 26 27 34 42 48 53 58 64 70 75 82 87 92 99 100 84 73 59 57 54 34 22 16 9 4 7 14 23 31 39 43 48 52 54 56 56
33 33 29 29 27 27 27 25 27 27 33 40 45 50 56 63 67 73 78 84 90 95 99 97 85 75 63 57 51 30 19 11 4 5 11 20 27 32 39 43 47 50 52 52
35 35 32 30 27 27 28 27 28 28 32 38 43 48 54 60 65 71 75 81 88 92 99 100 90 87 79 63 56 48 24 15 8 4 9 15 22 30 36 38 38 42 46 52
38 37 34 29 28 28 28 29 31 31 33 37 41 47 52 57 63 67 73 78 85 91 95 100 101 97 84 68 58 52 30 18 14 10 10 13 18 24 27 33 37 41 43 46
41 37 33 31 30 29 29 31 31 30 33 37 41 46 51 55 61 68 71 77 83 89 95 99 101 105 101 80 63 53 51 29 16 14 13 13 16 19 21 27 32 37 42 44
40 35 34 30 29 30 33 34 34 32 34 37 40 44 49 54 60 66 71 75 81 87 93 96 99 102 98 93 74 62 55 38 21 17 16 17 18 20 21 22 24 28 32 35
37 34 33 29 28 32 34 36 37 35 37 40 39 44 50 53 60 65 70 74 80 86 91 95 98 98 96 93 85 73 64 41 25 20 20 20 21 23 23 23 23 24 26 28
34 34 30 28 30 31 35 39 40 38 40 42 41 44 50 53 59 64 69 74 79 84 90 95 98 101 99 97 93 78 70 50 29 22 22 23 23 24 26 28 28 27 26 27
35 32 29 29 30 31 36 39 43 41 40 43 44 45 51 54 59 63 69 74 79 82 88 93 97 101 101 101 98 86 70 57 37 23 23 25 26 27 28 29 31 32 33 32
36 32 29 28 30 33 36 40 43 43 42 43 44 46 50 56 61 65 69 74 80 83 88 92 96 101 99 102 100 89 80 65 51 30 22 24 28 29 31 32 33 34 35 35
36 32 29 29 33 35 37 40 41 44 45 46 47 49 52 56 63 67 71 74 80 84 87 92 96 99 101 106 106 98 84 71 57 43 26 23 28 31 33 34 35 36 38 38
37 34 34 34 35 36 39 41 44 47 47 46 48 50 53 57 63 68 72 76 80 84 88 95 96 98 102 102 110 118 94 77 69 53 35 25 26 31 35 36 37 38 39 40
38 37 37 38 36 36 37 41 46 50 50 51 52 53 54 59 64 69 74 78 83 88 92 96 99 102 105 102 106 112 106 88 75 65 47 33 26 29 35 37 38 40 41 42
40 37 38 37 36 39 41 45 49 52 54 53 54 56 58 61 64 71 75 79 84 88 94 97 100 102 104 99 109 116 105 104 79 69 55 39 31 28 32 37 38 40 42 44
39 36 39 37 37 41 44 50 49 51 55 56 57 60 62 65 68 72 77 81 84 88 95 100 102 107 108 105 113 115 111 108 87 70 63 47 34 30 30 35 39 39 40 43
40 41 40 39 39 43 47 48 51 54 55 56 57 60 64 68 71 75 79 82 85 90 95 99 103 109 111 115 114 114 120 113 95 79 69 53 40 31 30 33 38 40 40 42
45 44 42 41 43 46 49 52 57 58 56 59 63 64 67 71 75 79 83 85 88 93 97 101 104 111 113 116 116 120 119 115 101 85 74 55 44 35 30 32 36 39 41 41
44 42 43 45 49 48 53 59 61 61 61 64 66 67 71 74 79 82 85 89 92 96 100 103 106 113 109 114 120 121 119 122 103 88 74 55 45 38 32 30 33 37 39 39
44 45 47 49 51 53 57 60 63 66 67 68 68 72 75 78 81 84 88 92 96 100 104 107 109 113 111 115 118 120 124 119 98 85 69 53 46 39 33 29 32 36 37 38

GFSNW_250_spd_102.txt.gz
Wind_Speed
40 40 37 31 30 26 24 25 31 35 37 41 45 50 56 62 65 73 79 80 79 78 75 67 59 43 35 30 27 20 12 4 7 13 19 26 37 47 52 58 63 55 62 66
39 39 32 30 29 25 25 24 28 32 35 39 42 49 54 61 64 68 76 82 78 79 79 70 62 46 36 31 27 22 14 4 7 13 18 22 29 41 47 52 52 56 60 63
38 37 29 28 25 21 19 22 27 28 32 36 40 46 52 59 62 65 76 83 79 77 76 68 61 50 39 32 28 24 18 7 4 14 17 20 23 31 42 46 49 55 60 64
37 34 27 23 16 17 18 21 23 27 29 35 37 45 51 57 61 64 73 80 85 78 74 69 58 54 45 36 29 25 19 12 3 14 22 23 24 27 36 44 50 52 51 57
37 28 26 18 17 15 17 20 23 26 27 32 37 43 50 55 59 62 70 80 84 82 79 73 64 54 49 38 33 28 21 15 5 10 19 23 26 29 32 39 43 47 50 55
33 28 22 19 17 16 16 18 22 23 24 30 36 42 48 53 57 61 68 80 84 88 80 76 71 55 50 42 33 28 23 18 10 8 17 23 26 28 31 39 44 48 50 53
33 28 23 21 16 13 15 16 19 22 24 27 35 40 46 52 55 61 67 77 84 88 91 80 75 69 55 48 37 28 24 18 12 7 14 20 23 27 31 36 41 44 48 51
35 29 26 21 18 14 14 16 18 21 22 26 34 38 44 50 55 59 66 72 79 87 89 87 81 76 61 53 51 34 25 20 14 7 8 16 19 25 32 37 39 41 46 50
35 31 29 24 22 18 15 16 18 21 21 26 31 36 42 47 52 58 64 68 77 84 88 91 84 78 76 66 49 47 35 23 17 10 7 15 21 24 27 32 36 40 44 47
36 33 31 27 25 22 17 18 19 20 20 25 29 33 40 45 50 57 63 68 74 80 85 91 91 90 77 76 63 46 38 28 19 16 9 10 19 23 27 29 36 39 43 45
39 36 33 30 28 25 21 20 21 20 20 25 27 32 37 45 48 55 60 66 72 77 84 86 91 93 93 90 76 63 51 30 17 15 14 12 14 18 24 28 33 35 41 45
41 37 34 32 30 28 24 22 23 21 21 25 27 31 35 43 47 52 58 63 68 75 80 85 89 89 94 95 83 72 61 48 26 14 12 13 14 18 20 25 30 34 37 39
44 37 37 34 33 31 27 24 23 22 21 24 26 31 35 42 45 50 55 62 67 73 77 82 87 88 91 99 95 89 69 57 42 22 15 15 15 17 20 23 24 27 34 39
44 38 37 36 36 34 29 26 26 25 22 25 27 30 34 40 46 48 53 60 66 70 74 80 82 88 91 92 95 93 88 62 48 34 20 17 19 19 19 21 24 27 30 35
42 39 39 39 37 35 32 29 28 28 24 23 25 29 34 40 44 48 53 59 65 69 74 78 83 85 90 95 95 94 93 85 68 46 29 20 19 22 22 23 25 28 29 31
42 41 42 40 37 36 35 31 31 31 27 24 25 29 34 39 43 47 52 58 63 69 74 77 82 86 86 92 94 91 90 85 86 63 44 26 21 23 25 26 27 29 30 31
42 44 41 39 36 35 34 32 33 33 31 26 27 32 35 39 44 46 51 56 61 66 72 76 79 83 86 89 94 93 93 80 84 84 60 43 26 24 25 27 30 31 32 32
43 42 39 36 34 35 34 34 35 34 33 31 31 34 39 41 43 46 50 54 59 66 70 74 79 82 87 90 93 94 94 87 94 75 76 60 42 27 26 29 31 33 34 36
44 42 39 38 36 38 37 37 35 35 35 36 35 37 41 43 45 47 51 54 59 65 70 73 78 82 85 89 93 97 96 100 90 79 83 79 64 36 26 29 32 35 37 38
46 41 40 39 39 39 38 39 38 37 39 37 37 39 41 42 45 47 50 55 59 65 69 74 76 81 86 89 93 98 100 96 100 93 84 80 71 55 32 27 31 35 39 40
42 42 43 42 41 40 38 38 38 40 41 40 40 42 45 45 45 46 50 56 60 66 70 74 77 82 86 91 95 97 101 101 107 102 90 101 82 60 39 28 28 33 37 41
50 49 49 45 43 40 37 38 40 43 44 45 45 45 43 44 46 49 52 58 61 66 72 76 80 83 87 90 95 100 104 102 109 104 110 105 87 67 48 31 27 31 36 39
54 52 50 46 39 38 38 40 46 43 46 49 46 47 45 47 50 51 53 59 64 69 73 77 82 86 91 94 97 99 104 105 110 105 110 106 94 71 54 36 28 29 34 38
54 51 48 42 38 39 42 44 48 51 51 50 49 49 49 50 53 55 56 62 64 70 75 79 83 87 92 96 99 103 105 108 111 109 114 110 94 77 57 41 32 28 32 36
54 51 44 42 41 41 44 49 51 52 55 54 52 50 51 53 56 59 61 65 68 72 76 80 84 89 92 97 100 104 108 112 114 117 115 115 99 75 59 42 35 31 30 34
55 50 46 46 45 45 48 52 55 57 58 57 57 54 54 54 57 60 65 68 72 76 79 83 87 91 95 98 101 105 111 114 115 121 121 119 93 70 56 43 34 32 29 32
53 48 47 47 49 52 56 58 59 60 60 60 59 58 56 60 60 63 68 72 76 81 84 87 90 94 99 103 108 108 112 114 114 122 119 113 87 68 54 42 35 31 29 32

GFSNW_250_spd_105.txt.gz
Wind_Speed
51 46 44 37 38 35 38 34 29 28 26 27 32 37 41 46 52 59 65 74 77 79 76 73 69 56 50 40 31 24 17 11 2 7 13 21 28 31 35 42 45 49 55 62
45 43 41 36 34 34 33 28 26 21 22 24 30 34 40 44 50 55 62 70 75 77 75 73 72 60 53 44 33 27 20 14 6 5 12 16 18 31 37 45 51 55 58 62
45 43 38 37 33 30 27 22 18 18 18 21 28 32 37 44 49 53 59 67 73 77 81 74 72 64 57 48 36 30 25 18 10 1 11 18 21 25 35 41 41 38 44 54
46 43 39 34 32 27 20 18 15 14 17 20 25 29 36 43 48 49 58 64 71 75 81 79 74 69 56 51 40 31 27 20 14 8 9 18 23 26 32 37 39 38 46 51
49 41 39 35 28 23 18 13 12 13 15 18 23 27 35 41 45 48 56 63 67 76 77 78 78 72 62 53 45 34 27 24 19 12 6 14 22 24 28 35 36 41 43 47
47 45 39 31 25 21 15 12 9 11 14 17 22 26 33 39 45 48 56 57 65 72 76 77 78 77 69 59 50 40 29 23 19 13 9 5 17 23 26 30 34 40 42 45
49 45 40 31 25 19 13 12 10 11 13 16 19 24 31 38 44 47 54 55 63 69 75 80 78 76 75 65 56 45 33 23 20 15 10 5 6 15 23 27 30 35 40 44
48 45 39 31 27 19 14 13 13 10 13 16 19 24 29 35 41 46 50 56 63 64 75 79 86 78 81 72 64 53 41 28 21 18 15 11 5 6 16 23 27 32 37 41
49 46 40 34 26 22 17 15 14 11 11 14 17 23 27 32 38 45 48 54 62 65 69 80 82 85 76 82 78 62 53 40 26 19 17 13 9 6 9 13 22 26 32 36
51 48 41 36 29 25 20 18 16 12 10 12 14 20 25 29 36 43 46 50 57 65 68 70 81 85 83 84 82 83 72 53 41 25 17 17 14 11 8 11 18 24 28 33
54 48 43 38 31 27 22 20 17 14 12 11 12 16 22 28 34 41 45 49 56 62 68 73 76 80 87 90 81 83 83 71 59 45 28 17 15 15 13 15 16 19 24 30
54 49 45 40 34 29 25 21 19 16 14 12 11 15 20 26 31 39 46 49 52 59 65 69 71 79 82 84 90 85 83 72 71 60 42 28 19 16 14 15 19 21 25 28
56 50 47 42 36 31 27 23 21 19 16 14 11 15 18 24 29 35 42 48 51 55 61 66 70 74 79 78 88 84 88 75 77 74 61 38 26 20 18 17 17 21 24 28
55 51 48 42 38 32 27 25 23 21 19 16 12 15 19 24 28 34 38 45 50 53 57 61 67 72 76 80 81 82 86 84 79 84 75 52 45 30 22 22 20 20 25 29
57 53 48 43 40 32 31 28 25 24 22 19 14 14 20 24 28 33 38 42 47 50 54 59 64 68 72 77 79 82 76 87 88 83 83 68 58 41 28 24 24 25 25 29
59 54 49 44 37 34 35 33 27 27 25 22 16 14 20 24 29 33 38 40 45 50 54 57 61 66 70 74 79 82 81 77 91 83 83 81 63 47 36 26 25 28 29 31
59 55 50 43 39 38 39 34 29 28 27 24 19 16 18 23 28 33 37 39 44 49 54 56 60 65 68 73 77 81 82 81 90 92 83 89 83 70 45 34 26 28 31 33
62 56 50 44 43 42 40 34 28 26 27 26 22 20 18 22 27 31 38 38 43 49 52 56 59 64 68 72 76 79 82 85 90 89 85 94 94 73 60 43 31 28 30 35
61 57 48 46 45 42 38 32 31 31 30 29 27 24 21 24 27 34 37 39 42 48 52 55 59 63 67 70 76 79 82 87 91 92 81 90 98 86 71 65 43 31 30 34
62 53 45 46 45 40 39 37 34 31 31 33 32 28 25 28 30 36 38 40 44 48 52 55 59 63 66 70 75 80 84 86 90 92 94 90 92 95 72 77 56 39 31 33
59 49 46 46 46 43 42 40 36 34 36 36 35 32 30 32 35 36 39 41 46 49 53 55 60 63 67 71 75 81 84 87 90 97 94 96 101 104 95 80 70 48 37 33
58 54 51 50 46 43 42 42 40 37 38 37 38 38 34 37 36 39 42 44 47 50 55 58 62 66 69 72 76 80 84 89 92 95 97 102 106 110 101 82 75 56 42 37
61 56 51 47 43 41 42 43 45 41 39 39 41 40 38 38 39 44 45 46 49 51 58 61 65 68 71 73 78 81 85 90 91 99 101 104 106 110 107 94 81 63 48 39
62 57 50 46 39 41 47 49 48 45 44 43 45 43 42 41 42 47 49 51 51 54 60 64 68 72 75 76 80 84 88 93 94 101 107 106 112 118 111 108 83 64 51 41
63 56 48 41 44 48 49 50 50 49 49 50 50 47 44 44 46 50 53 52 53 56 61 65 69 73 75 78 83 86 92 93 101 101 106 108 115 122 116 105 82 63 52 43
62 54 46 50 50 49 49 50 51 52 52 55 54 49 46 47 51 55 56 55 58 60 64 68 71 75 78 81 85 91 94 98 97 103 107 112 117 122 107 106 80 61 53 45
60 53 52 53 52 51 51 52 52 53 59 59 56 53 52 54 56 57 58 59 62 64 66 69 75 78 82 86 89 93 96 101 101 107 110 118 122 118 104 96 73 58 51 46

GFSNW_250_spd_108.txt.gz
Wind_Speed
53 50 47 39 35 37 34 32 32 35 35 33 22 15 22 32 40 49 59 66 75 82 79 76 75 60 51 46 35 27 19 12 7 4 14 21 26 32 35 39 47 55 65 74
53 48 41 38 31 31 30 29 29 31 32 24 13 12 21 30 38 45 54 63 70 76 81 80 75 66 56 49 42 31 23 16 13 4 8 16 29 35 38 44 50 57 66 70
52 45 41 36 32 32 29 26 28 28 27 16 8 12 20 28 36 43 51 60 65 74 81 78 73 72 61 51 46 36 28 21 17 10 3 14 21 32 40 48 54 57 61 66
52 48 44 37 36 32 28 25 26 24 18 9 6 11 19 25 32 41 47 55 61 69 73 79 75 75 68 57 48 41 32 25 18 19 9 10 19 24 30 34 40 42 46 52
55 51 45 39 35 31 27 24 23 17 13 7 4 11 18 24 30 38 44 50 54 61 69 72 78 80 76 66 54 46 38 29 21 17 18 5 8 18 25 30 32 36 38 43
58 52 44 42 37 31 26 22 21 15 11 6 3 10 17 23 29 34 40 45 50 58 62 68 71 77 78 77 67 55 47 37 28 22 16 12 2 7 16 24 30 35 39 42
59 52 47 43 37 31 24 22 21 15 11 5 2 9 16 21 28 33 38 42 49 57 62 66 69 72 77 79 75 66 58 48 34 27 20 14 9 5 8 16 22 28 32 37
57 53 48 42 37 30 24 24 20 17 11 6 1 8 13 19 26 33 37 42 46 56 61 62 64 73 73 75 82 79 70 60 48 33 24 17 12 7 3 10 18 21 28 34
53 51 49 44 38 31 26 25 21 18 13 7 2 5 11 17 23 30 37 40 45 49 61 62 69 67 72 75 77 79 83 71 62 50 37 23 17 9 4 3 12 19 24 30
56 52 49 44 40 32 30 27 23 20 15 8 5 2 8 14 20 28 35 38 44 48 54 61 66 72 68 79 79 74 76 87 73 62 54 44 25 16 10 5 6 13 20 24
58 54 48 46 41 34 33 29 24 21 17 10 8 1 5 13 18 25 31 38 41 48 52 54 62 68 70 72 79 79 76 80 85 74 64 57 46 30 18 13 8 10 15 22
59 56 50 46 42 37 35 31 26 22 19 14 9 5 4 11 16 21 28 34 41 46 48 53 57 63 66 71 68 76 80 78 81 80 73 65 55 46 33 20 14 11 15 20
62 58 52 47 44 39 37 32 27 25 22 16 11 8 5 10 14 19 25 31 38 42 48 50 54 59 62 68 70 68 72 75 76 80 73 74 62 52 42 30 22 18 17 19
63 59 54 50 45 40 37 33 28 25 24 18 14 12 6 10 15 18 21 27 33 39 45 49 53 56 58 62 67 65 63 68 73 76 84 72 88 65 56 46 30 23 22 22
63 59 56 51 45 40 37 35 31 27 24 21 19 15 10 11 17 20 21 25 30 36 41 46 50 53 56 59 62 68 64 65 66 76 79 79 82 88 74 57 48 34 26 25
65 60 55 51 46 42 39 37 33 28 26 22 21 17 13 12 16 22 21 24 28 33 38 44 47 51 54 57 60 63 64 61 62 70 77 78 85 87 94 84 58 55 36 27
65 59 56 54 48 42 40 37 34 31 26 24 22 19 16 14 16 22 23 24 28 32 37 42 45 50 54 57 62 63 67 68 69 71 71 79 83 90 89 81 77 80 52 37
64 60 57 54 50 44 41 40 37 33 29 22 20 22 20 17 17 23 25 26 28 33 36 43 46 49 53 57 61 64 66 68 73 74 73 75 82 90 91 92 67 75 65 49
63 60 60 57 52 44 42 42 39 33 26 23 22 23 22 20 19 23 26 28 30 33 35 41 47 51 54 57 61 64 69 72 76 79 78 80 86 89 94 93 78 73 70 58
67 64 62 59 54 46 45 46 42 35 26 26 25 26 25 24 24 25 26 29 32 33 37 42 47 51 55 58 62 66 71 75 78 79 83 82 90 92 99 97 98 77 69 70
71 64 62 59 56 51 49 46 40 34 30 29 28 29 28 27 29 28 28 31 35 36 39 44 48 52 55 59 62 67 71 75 77 81 84 89 90 94 101 102 104 90 81 78
69 65 65 62 61 54 47 43 38 37 35 34 32 33 32 31 32 32 33 34 37 39 42 47 50 53 56 59 62 67 72 76 79 81 86 88 93 96 101 106 108 99 85 89
72 69 66 65 60 47 39 41 41 42 38 34 36 36 34 33 35 35 35 35 39 42 45 50 52 55 57 61 64 68 73 77 81 83 88 91 96 100 102 105 108 117 97 99
76 70 67 66 52 40 41 46 46 45 40 36 37 39 37 35 38 40 38 38 41 43 48 52 53 56 60 63 67 71 76 80 83 85 90 93 100 101 105 107 108 118 94 101
76 70 65 55 48 45 50 46 44 45 43 42 43 43 40 38 42 45 43 42 43 47 51 54 57 59 63 65 69 73 77 79 83 86 92 94 98 102 104 108 114 109 103 94
75 67 59 55 53 53 49 46 47 47 45 46 46 46 44 43 45 49 47 47 49 53 57 58 59 61 66 67 71 75 80 82 84 89 92 97 100 106 105 112 117 103 99 87
70 59 59 59 59 55 49 49 51 49 48 49 49 48 46 44 47 48 50 51 54 57 59 60 62 65 68 69 74 79 82 85 87 91 95 100 104 103 110 115 116 101 93 82

GFSNW_250_spd_111.txt.gz
Wind_Speed
45 53 51 51 48 39 32 24 27 23 21 22 22 20 15 17 25 37 47 57 66 76 79 75 71 61 47 41 30 25 18 13 9 7 10 18 25 33 38 43 47 53 62 73
52 53 50 48 39 36 31 30 25 23 20 19 18 13 9 15 24 33 47 56 63 71 77 79 73 67 54 44 34 30 22 17 15 10 8 14 25 30 32 41 45 51 57 67
56 54 48 45 42 37 32 29 26 22 18 15 11 7 6 13 22 29 41 52 60 65 71 77 75 71 65 52 43 36 31 20 17 14 10 12 21 28 35 38 43 48 57 65
61 57 49 48 43 37 34 30 25 20 13 11 7 5 4 13 22 26 35 46 55 62 65 73 76 75 77 67 52 44 37 29 20 20 11 8 9 23 37 41 43 48 53 61
61 55 51 48 42 38 34 29 23 17 11 10 10 4 4 11 20 26 32 41 50 56 60 67 73 78 80 75 69 54 44 37 28 20 19 12 8 12 23 35 41 47 50 58
58 52 52 46 43 38 34 27 22 15 12 11 11 5 3 11 18 25 30 37 45 52 57 64 69 74 79 80 76 68 58 48 39 31 21 18 13 6 16 28 36 39 46 49
56 57 51 46 42 38 32 26 21 16 14 16 12 6 3 10 15 21 28 36 43 49 55 61 64 68 71 76 77 74 70 63 51 40 31 23 16 12 7 14 27 35 40 45
57 56 49 47 43 39 33 28 21 18 15 18 13 7 3 9 13 21 28 35 41 45 51 60 59 64 67 70 72 73 77 71 65 60 47 32 23 14 6 8 13 23 31 36
59 54 47 46 44 39 32 27 23 21 19 17 14 8 2 7 13 20 26 32 39 45 50 54 62 59 60 68 74 69 69 76 73 65 60 52 38 24 16 8 2 10 20 31
57 53 49 47 43 38 33 30 25 23 21 18 16 9 3 4 11 17 23 29 34 42 47 52 55 60 57 58 65 70 69 69 71 72 70 63 56 46 31 17 11 5 12 18
57 52 49 45 42 38 34 32 28 24 23 19 18 11 5 1 6 12 19 25 31 37 44 48 53 55 60 61 59 62 67 70 67 71 77 77 64 59 47 38 24 13 10 13
57 54 49 47 43 41 38 33 30 26 24 19 17 14 8 4 4 10 16 22 28 33 39 44 48 53 57 61 60 64 56 67 71 72 72 73 77 68 63 59 50 35 20 14
58 57 53 51 44 41 37 34 32 28 25 21 18 16 11 7 4 8 12 18 25 31 35 40 44 48 53 57 60 61 64 58 64 70 72 72 76 76 73 65 59 55 45 31
63 58 55 53 48 43 38 35 34 29 26 22 20 16 16 11 8 7 11 17 22 26 32 37 41 45 49 53 56 60 62 61 63 61 65 73 71 74 75 77 68 63 55 42
66 60 56 55 51 47 43 38 35 31 28 24 22 20 17 15 12 11 11 15 21 25 28 32 37 41 46 49 52 55 60 63 61 64 61 68 72 68 75 74 79 77 66 63
69 63 59 55 52 51 44 39 36 34 29 25 23 22 20 17 15 15 13 13 20 23 26 31 35 37 43 47 50 54 57 61 63 64 62 59 66 69 61 73 79 73 69 70
71 65 62 59 54 50 44 42 39 36 31 27 24 22 21 19 17 18 18 15 18 23 26 29 33 36 41 44 49 52 56 60 61 65 63 68 64 67 63 66 68 76 72 70
72 68 64 62 56 50 45 43 40 37 33 28 25 23 21 20 20 21 21 18 18 21 25 29 32 35 39 44 46 51 55 59 62 65 65 66 67 73 67 64 68 80 79 74
76 72 69 65 59 54 48 44 41 37 34 32 28 26 24 23 21 21 23 21 20 22 26 29 32 35 39 44 47 50 54 58 62 66 68 70 71 74 72 73 76 81 80 82
81 77 73 65 62 57 50 45 42 39 37 34 30 27 28 28 26 23 23 22 21 22 28 31 35 37 40 44 47 51 55 59 62 66 72 73 75 77 80 81 80 86 87 89
84 79 73 67 65 58 52 45 42 39 36 34 32 29 31 32 29 27 24 24 25 25 28 33 37 39 43 46 50 53 55 60 64 67 72 75 76 78 83 85 85 92 94 99
83 79 75 72 66 63 56 44 40 37 36 37 36 31 32 34 32 29 28 28 29 30 31 35 39 41 45 50 53 56 58 62 65 69 71 75 79 79 85 88 88 94 96 95
90 86 81 75 71 66 54 41 38 40 45 41 37 36 35 34 33 31 31 31 33 36 36 38 41 43 47 53 56 58 60 62 65 70 73 76 80 80 86 89 93 98 97 98
96 86 81 76 69 61 50 46 52 48 39 39 41 39 38 36 35 35 32 32 34 37 39 41 44 46 49 54 56 59 62 64 67 71 77 80 83 85 87 92 93 97 103 104
96 89 80 71 64 59 53 50 51 43 39 40 42 42 41 39 40 40 36 33 35 38 41 43 44 47 49 53 57 61 64 66 71 75 80 81 89 89 93 96 96 102 103 104
99 88 76 72 64 58 56 55 50 43 41 42 45 45 43 43 44 45 41 36 36 39 42 43 45 47 50 54 59 64 67 68 74 78 82 85 91 91 95 97 102 106 105 109
99 86 76 71 64 62 61 57 52 47 44 46 46 46 47 46 46 47 42 38 40 42 46 47 47 49 53 57 62 66 69 72 76 82 85 89 93 93 101 100 105 105 103 109

GFSNW_250_spd_114.txt.gz
Wind_Speed
40 43 48 53 53 55 49 44 37 32 23 18 14 13 13 12 15 26 37 48 57 66 66 68 71 59 46 40 30 26 20 11 11 11 9 13 17 20 27 31 30 40 50 57
41 45 51 54 52 51 49 44 36 30 23 17 12 9 7 6 15 25 35 46 54 63 69 71 71 65 54 45 36 31 25 17 11 11 9 11 14 18 22 27 34 40 48 54
46 53 51 51 52 49 42 39 35 28 21 15 10 7 4 6 18 24 33 42 51 60 68 71 72 73 69 56 45 36 30 24 18 14 13 9 13 16 19 23 30 41 46 54
50 55 58 55 51 46 43 36 31 25 19 15 12 11 5 9 17 22 30 39 47 56 64 70 76 78 82 71 57 45 37 32 23 18 14 16 11 14 14 15 24 33 42 49
59 57 54 50 49 48 40 34 28 21 18 15 14 12 8 9 15 21 28 36 44 53 56 63 73 78 81 77 76 63 50 40 32 28 22 15 12 11 14 19 20 26 36 42
55 55 54 49 47 44 40 33 27 22 18 18 16 13 9 10 15 20 28 34 41 48 54 58 65 71 77 78 79 75 70 58 44 37 32 22 16 11 10 15 22 25 31 40
53 53 48 48 46 46 38 32 26 21 20 19 17 14 9 11 13 18 24 32 37 45 51 57 62 64 69 71 75 78 81 73 65 56 46 37 25 16 9 13 15 19 24 31
51 46 44 44 43 44 40 32 28 23 21 20 18 14 10 10 11 16 21 28 37 43 49 54 60 61 62 65 69 73 75 77 74 68 64 52 37 28 21 7 6 14 20 23
48 47 44 43 43 42 38 33 27 24 22 21 18 13 9 9 9 13 18 25 30 38 44 48 55 61 61 60 65 69 70 69 70 68 65 63 56 50 36 26 15 2 10 18
49 46 45 43 41 39 38 32 28 25 23 22 19 14 9 7 5 10 15 21 29 33 39 44 48 53 57 64 63 60 66 65 65 68 65 64 58 57 53 48 36 24 14 5
51 47 46 43 41 38 36 33 29 26 24 22 19 15 10 6 3 6 12 19 25 31 36 40 45 48 52 55 59 65 60 62 62 62 65 67 60 62 55 51 49 45 42 24
53 49 48 44 42 39 36 35 31 28 24 23 22 17 12 6 3 3 9 15 19 25 29 35 39 42 48 51 57 60 64 64 63 66 60 61 61 60 60 56 51 47 43 38
55 51 51 47 45 42 40 37 34 30 27 26 25 21 16 10 6 1 5 11 16 20 24 31 34 39 42 46 51 56 59 63 60 58 64 57 56 54 55 58 61 58 47 43
60 55 52 48 46 43 41 40 37 33 30 29 26 24 20 14 11 7 6 8 13 18 22 25 30 36 38 41 46 49 52 55 60 62 61 62 57 55 52 54 55 55 64 59
62 63 58 53 49 46 43 40 37 35 32 30 28 25 21 18 15 12 11 12 13 16 20 22 26 30 35 38 40 44 46 50 53 55 60 60 57 64 58 57 56 51 51 55
67 67 61 57 51 50 47 43 41 38 35 33 29 26 23 19 17 16 16 16 18 16 17 21 23 26 30 34 37 42 44 47 49 53 55 56 57 58 58 55 62 61 53 58
73 72 67 62 57 53 50 48 44 42 38 34 30 27 23 19 18 17 19 19 19 21 18 20 23 25 29 32 34 38 42 45 47 49 53 56 59 61 62 65 59 65 66 65
76 76 74 70 64 60 56 52 47 44 41 36 32 29 25 20 18 19 20 21 22 22 21 22 23 25 28 31 35 38 39 42 45 47 50 53 57 61 64 65 68 71 70 69
83 81 78 75 71 65 62 56 51 48 42 38 36 30 25 25 21 22 23 23 23 24 24 24 24 26 29 32 36 39 42 44 45 48 51 54 59 63 64 70 71 72 76 74
86 84 83 78 74 70 67 64 57 49 45 41 37 32 29 26 26 26 26 26 23 24 26 26 26 29 31 34 37 40 43 44 47 51 52 54 59 63 68 71 76 78 75 78
84 89 88 81 79 76 69 65 60 52 46 43 38 36 31 29 29 28 28 27 27 28 28 28 28 29 32 35 38 41 43 45 47 50 54 57 60 65 69 74 75 80 77 81
83 91 91 88 85 80 74 67 59 49 46 42 40 37 33 31 30 29 28 28 30 31 32 30 31 32 33 36 38 40 44 46 49 52 56 59 62 66 71 77 79 81 80 78
89 99 99 94 89 83 71 61 48 43 40 48 48 40 36 33 32 30 30 28 31 33 35 34 36 35 36 39 38 42 45 49 52 55 58 62 65 70 73 78 85 82 81 90
96 98 103 98 88 79 68 62 60 53 55 56 44 40 39 35 33 34 36 31 31 34 35 36 37 39 39 39 40 44 47 49 53 57 59 65 71 72 76 79 87 83 92 91
101 103 103 94 85 81 74 68 64 59 54 44 42 42 39 37 35 38 40 37 35 37 38 38 38 41 41 40 42 46 48 51 56 59 62 66 73 76 81 83 90 84 91 92
104 104 97 94 90 85 79 73 70 64 56 45 40 42 40 38 35 38 42 41 41 40 41 39 39 42 43 42 44 47 49 53 58 62 65 69 75 79 86 88 93 91 96 91
97 99 99 99 94 89 84 78 74 70 60 52 46 43 40 36 34 37 44 45 43 43 44 41 41 43 43 44 45 50 51 55 61 65 69 74 78 83 89 93 98 89 94 93

GFSNW_250_spd_117.txt.gz
Wind_Speed
51 51 52 56 62 59 58 54 48 42 35 29 21 12 4 4 10 20 31 40 48 54 55 63 55 48 43 36 31 27 21 15 12 12 9 6 5 9 17 25 31 38 48 58
52 53 54 58 59 59 54 50 45 37 32 26 17 10 6 7 15 25 33 41 49 54 59 65 66 57 49 41 35 32 28 21 15 16 13 12 12 10 16 23 29 32 48 58
45 51 52 55 56 53 50 45 39 34 28 22 15 13 9 11 19 25 32 40 47 55 63 68 72 73 64 54 43 39 34 27 20 15 19 18 16 14 13 17 24 29 38 47
46 52 55 51 50 47 43 42 37 30 24 19 16 13 10 13 21 27 32 39 46 55 63 67 73 75 82 75 62 49 41 34 30 23 21 20 21 20 15 13 18 27 35 42
45 50 53 53 46 44 39 36 33 27 21 18 17 13 12 13 21 27 31 38 43 54 61 64 71 72 76 78 78 67 53 46 40 36 29 21 18 18 18 17 12 20 32 42
41 48 48 45 44 42 41 34 30 24 19 19 16 13 12 13 18 25 30 34 40 47 57 62 66 70 74 78 80 79 75 68 55 48 40 31 24 18 12 13 16 16 21 34
36 40 41 41 38 38 37 33 29 24 19 18 15 13 11 14 18 22 26 31 37 42 49 56 65 67 69 73 77 78 79 81 75 67 52 41 34 28 22 16 11 9 13 20
29 35 39 40 38 35 34 30 28 24 20 18 15 12 11 13 14 20 25 29 33 38 45 51 58 64 67 70 70 73 75 73 72 72 68 63 49 38 32 27 19 12 6 6
23 33 36 37 37 36 33 29 27 25 21 17 15 13 10 10 11 16 21 25 30 36 40 45 52 56 62 62 67 68 67 68 72 71 69 67 60 55 52 40 28 21 15 5
27 37 37 35 36 35 33 29 27 26 23 19 16 13 9 7 7 11 17 21 26 32 36 40 44 49 53 57 61 64 65 64 65 64 63 63 59 60 54 49 43 42 32 17
34 36 40 37 36 35 32 29 28 26 24 21 18 15 9 6 3 6 12 16 21 25 30 34 38 41 46 51 50 56 60 61 64 62 63 60 58 58 56 49 50 43 39 33
43 41 42 39 38 37 33 31 28 27 26 24 20 18 13 8 4 1 7 12 15 20 25 29 32 35 40 43 45 49 52 55 55 58 60 56 57 58 53 48 49 45 42 41
43 46 48 43 41 42 38 35 32 30 29 27 24 22 18 13 8 4 2 7 11 15 19 23 26 32 34 38 40 42 46 49 49 52 55 55 56 56 55 52 47 44 41 43
38 46 54 48 45 46 44 38 37 34 33 30 27 25 23 19 14 10 6 4 8 12 16 20 22 26 28 32 33 35 40 42 44 46 50 50 53 51 57 55 51 50 45 43
40 48 54 55 51 49 48 45 41 39 38 35 31 29 28 24 20 15 12 11 10 12 14 17 19 22 25 26 30 34 36 37 39 41 44 46 50 50 54 54 59 55 53 48
45 48 58 63 56 54 53 51 46 42 39 38 36 33 30 25 23 20 17 16 14 15 16 17 19 20 21 24 27 30 33 34 36 39 40 41 45 47 51 53 54 59 54 46
44 50 55 66 64 58 56 54 50 46 43 41 38 35 32 28 26 22 19 18 18 17 18 18 20 21 22 23 25 28 29 32 34 36 38 40 43 45 50 53 57 57 60 61
43 55 58 60 71 64 61 59 56 50 47 43 41 38 36 30 26 24 21 19 20 21 21 20 21 23 23 25 26 28 30 31 33 35 37 40 41 43 46 51 53 59 60 64
50 51 62 62 66 73 68 64 61 56 52 47 45 42 37 34 30 26 23 21 22 24 24 24 22 24 25 26 26 28 29 31 33 34 37 40 42 44 49 52 56 59 64 63
52 55 64 68 64 71 76 72 65 61 56 49 47 45 40 39 32 31 28 25 25 25 26 27 24 27 28 28 28 29 32 33 35 36 39 40 43 45 48 52 57 59 65 67
56 56 62 70 73 71 79 79 68 64 58 54 51 46 41 39 35 33 29 27 26 27 27 29 27 29 31 32 31 31 34 35 36 38 40 42 44 47 49 54 59 64 66 70
60 62 65 81 83 81 80 82 74 65 62 57 54 49 45 44 40 37 32 28 27 28 28 28 31 31 32 34 35 34 36 37 38 39 42 44 47 50 52 55 61 64 69 74
61 65 68 82 86 87 81 73 73 65 60 60 60 57 54 51 43 39 35 29 29 28 31 28 31 32 33 34 35 35 36 38 40 40 43 45 49 53 56 58 63 67 73 77
62 67 68 76 69 75 71 66 73 74 73 73 70 67 59 51 47 42 37 33 30 32 35 30 32 33 33 33 35 35 36 39 41 42 46 49 52 54 59 61 67 73 77 82
63 66 64 57 62 76 74 72 77 79 77 74 70 69 61 55 48 41 37 34 32 39 36 37 36 36 37 37 37 37 37 39 40 45 48 51 54 58 61 64 69 76 77 82
64 60 56 57 69 79 78 78 82 80 79 75 71 67 60 53 47 42 40 35 38 39 36 40 40 40 42 42 42 42 40 42 43 48 51 53 57 60 63 70 72 80 85 91
57 54 56 62 78 87 85 84 87 84 80 76 73 67 59 50 47 42 41 45 40 36 38 40 41 41 42 42 44 46 45 46 48 52 53 56 59 63 68 73 77 82 86 93

GFSNW_250_spd_120.txt.gz
Wind_Speed
49 53 58 56 56 56 52 52 47 41 35 28 23 15 15 16 21 26 31 39 47 49 52 51 47 41 34 32 29 23 19 17 18 21 20 18 16 23 27 24 29 31 35 55
40 48 46 50 52 51 46 44 39 34 28 26 23 19 21 23 25 29 38 44 49 52 57 58 55 47 42 37 32 28 26 24 22 24 25 22 15 21 23 32 35 36 38 53
29 38 42 43 44 46 41 35 30 26 25 25 22 23 23 24 29 34 40 45 50 55 64 65 61 55 48 43 41 38 31 31 22 23 28 28 19 18 21 21 29 41 45 44
18 33 33 39 38 38 34 27 26 24 24 22 20 21 22 25 30 34 38 43 48 56 61 66 69 63 62 56 48 48 41 35 33 30 22 23 23 21 18 20 24 30 47 53
14 25 28 32 34 31 23 22 21 22 22 20 16 17 19 22 27 31 35 41 47 54 60 64 68 69 70 66 65 61 55 48 40 36 34 28 21 20 20 22 22 22 38 46
10 20 24 27 28 29 20 16 16 19 19 17 13 15 16 20 25 30 33 37 44 50 56 61 66 68 74 74 74 73 70 64 56 48 39 34 33 29 24 19 17 22 26 35
11 15 15 24 25 25 21 15 13 16 17 13 9 10 14 18 22 27 31 34 39 45 49 55 58 65 69 73 75 77 73 74 71 68 58 47 37 32 30 28 25 18 18 24
15 17 16 19 22 27 23 19 13 13 14 11 7 5 10 13 17 22 27 30 36 38 43 47 53 59 64 68 71 71 71 72 72 71 70 66 61 49 40 29 26 30 24 15
11 26 25 24 24 26 25 20 18 14 13 11 8 5 4 9 11 15 21 25 30 34 37 41 43 51 54 59 63 65 65 67 67 68 70 67 67 62 61 52 39 29 27 27
20 26 31 29 28 28 28 24 21 19 15 12 11 8 5 2 6 9 15 20 24 29 33 36 38 42 46 50 53 56 57 62 62 62 65 65 62 61 63 59 53 52 44 32
27 26 34 37 35 32 31 30 24 23 21 17 15 13 9 5 0 4 8 13 18 23 26 30 33 35 39 42 43 46 49 50 56 58 59 59 56 55 54 50 51 48 45 44
32 29 39 44 43 39 36 34 32 27 26 22 19 18 14 12 7 3 4 8 13 17 21 24 27 29 32 34 38 39 43 41 45 49 48 51 52 50 50 48 46 44 44 43
36 30 37 45 48 44 40 39 35 35 31 29 24 22 19 16 13 9 6 5 8 12 16 19 22 25 28 31 33 34 34 36 37 38 38 44 46 45 46 40 40 40 36 30
41 32 33 48 50 51 46 45 42 37 36 34 31 27 24 23 19 17 13 12 10 9 11 14 17 20 22 24 28 29 30 32 34 35 34 35 37 38 40 40 33 40 33 35
49 33 31 48 52 52 53 52 50 47 43 40 37 34 30 28 26 23 20 17 17 13 11 12 14 16 18 20 22 23 27 28 29 30 32 32 34 35 36 38 38 39 42 35
57 34 33 43 57 58 59 57 56 53 49 47 42 40 37 34 31 28 26 24 21 20 16 14 14 16 17 18 21 22 23 24 26 27 30 31 32 32 33 36 34 38 40 43
56 37 34 42 56 66 66 64 63 59 55 52 46 43 42 40 36 31 29 25 24 23 21 20 17 17 19 19 20 21 22 24 25 26 28 28 30 31 31 34 35 37 41 40
56 40 35 43 54 70 72 71 68 64 61 56 52 45 44 44 38 33 30 27 28 27 26 23 23 21 20 20 20 21 22 23 26 27 28 29 31 33 34 34 36 39 41 45
58 45 40 44 53 71 77 76 74 70 65 58 54 52 50 45 42 40 35 30 29 28 27 25 22 24 23 22 24 23 23 25 26 28 30 29 31 34 38 39 40 40 41 44
59 51 42 48 57 72 82 81 80 75 70 61 56 57 53 48 45 41 39 36 32 31 31 29 24 26 25 25 25 25 25 26 28 28 31 33 33 35 38 40 43 44 45 46
61 55 43 51 62 68 80 84 80 78 70 63 60 58 59 54 48 45 42 41 37 34 32 32 26 27 26 27 28 28 28 28 29 30 31 34 36 36 39 43 46 48 49 52
64 54 47 51 58 63 67 71 78 77 74 65 63 63 62 59 55 51 49 44 39 35 33 32 29 28 26 27 27 27 28 30 31 32 33 35 37 40 42 46 49 52 52 57
63 53 48 45 53 57 58 64 75 76 74 69 69 68 66 64 60 55 54 48 40 37 34 37 32 33 30 30 30 30 30 31 31 31 34 36 39 42 44 49 51 55 57 60
61 52 44 39 43 48 56 62 79 82 80 77 75 75 70 67 65 60 56 47 42 36 38 43 35 36 33 32 34 34 34 31 30 31 33 37 42 45 47 51 53 58 59 63
59 47 35 33 39 46 58 67 79 86 87 82 82 80 75 73 70 64 53 46 36 34 47 46 39 39 36 37 38 40 40 38 33 35 36 40 44 47 49 53 55 61 64 68
53 39 31 41 45 47 60 72 76 87 87 89 88 86 82 76 73 61 51 43 37 44 54 50 40 41 37 37 42 44 46 44 39 37 39 43 46 50 52 55 59 63 67 75
41 40 39 46 50 54 66 76 81 90 95 91 89 88 84 77 72 61 52 48 53 58 57 50 46 44 40 38 41 43 48 48 45 43 43 46 50 52 56 58 63 66 73 76

GFSNW_250_spd_123.txt.gz
Wind_Speed
40 41 43 43 43 45 41 38 33 29 30 29 30 28 32 36 39 41 45 47 47 50 50 49 44 32 24 18 13 14 13 14 13 16 10 12 15 19 19 21 20 23 27 32
29 31 33 33 33 31 31 29 29 32 31 29 30 34 36 39 41 46 48 52 55 55 54 54 47 35 30 28 23 23 19 12 14 17 17 14 18 20 22 24 26 30 36 47
22 21 23 22 23 21 22 24 29 29 27 27 32 34 35 37 41 45 49 53 57 59 58 54 50 43 39 34 30 25 23 19 17 16 17 14 17 19 20 27 29 33 41 47
22 12 13 15 13 15 16 16 20 21 21 24 28 30 31 35 38 43 48 52 56 60 61 59 57 53 50 45 37 33 29 24 23 23 19 17 17 17 17 19 34 37 51 54
31 6 5 7 11 11 9 11 10 11 16 20 22 26 27 32 35 39 44 49 52 56 59 62 67 67 66 56 51 45 39 34 28 25 24 23 19 18 18 20 32 38 49 59
48 21 9 3 1 8 9 8 5 5 9 15 18 19 21 27 31 34 38 43 48 52 57 61 62 64 69 64 61 60 55 45 37 32 29 25 20 18 21 18 24 38 51 63
55 22 19 14 11 4 10 9 12 10 5 8 12 13 16 20 25 29 34 37 42 45 49 55 58 61 65 65 67 61 61 62 55 45 36 33 27 21 20 25 21 26 45 57
84 37 23 22 21 15 11 14 16 16 16 5 4 7 10 13 19 23 28 32 38 39 44 47 51 55 59 61 65 63 61 63 60 60 58 45 34 31 25 24 28 27 25 46
103 58 36 29 26 27 22 17 19 20 20 19 7 0 4 8 12 16 21 25 30 34 36 40 42 46 48 54 57 59 63 61 62 61 57 57 56 43 36 29 26 35 36 31
103 90 49 29 34 31 32 27 22 22 23 23 20 12 5 4 7 10 14 19 23 27 30 34 37 38 42 45 48 52 54 56 58 60 62 59 58 58 60 42 33 27 39 44
103 99 81 44 31 39 34 36 33 27 26 27 25 23 17 8 7 8 8 12 16 21 25 27 30 34 36 37 39 39 42 46 49 50 54 56 53 56 56 51 51 47 44 40
105 101 96 63 37 35 42 40 41 37 30 30 28 27 26 18 14 11 7 7 10 14 17 20 23 26 29 32 33 37 38 40 40 41 42 43 45 45 46 47 48 46 44 42
105 104 96 93 41 37 41 46 46 46 41 34 33 31 30 26 20 16 12 9 9 10 12 13 16 19 22 26 28 29 32 32 35 36 34 34 36 41 41 38 39 39 37 34
105 106 106 106 67 37 41 50 51 49 48 43 39 34 33 30 28 24 18 16 13 12 14 13 13 14 17 20 22 24 26 27 29 30 30 30 32 33 31 33 33 29 27 25
112 113 109 108 83 44 41 45 58 56 53 49 46 43 37 34 33 32 26 22 20 16 14 17 16 15 14 15 16 19 19 20 23 24 25 27 27 26 27 28 23 25 23 20
117 112 109 107 96 57 40 46 54 63 59 55 53 48 45 41 36 36 36 30 26 23 20 16 17 19 18 17 17 17 18 18 19 20 23 23 22 23 26 27 26 23 22 24
123 111 111 107 99 62 44 45 54 64 65 62 58 55 52 49 44 41 42 39 33 27 24 22 20 20 20 19 18 18 17 19 18 18 20 21 23 24 25 27 27 28 29 30
129 113 110 106 95 67 46 47 52 62 70 69 63 59 57 55 53 48 46 46 38 32 28 27 25 23 22 21 18 16 18 18 19 20 21 21 22 23 25 25 28 31 31 34
123 114 106 100 92 68 45 47 50 61 68 71 69 66 62 59 57 55 51 48 42 37 33 30 29 28 25 23 21 19 18 19 21 20 21 22 24 25 26 26 26 31 33 33
124 113 102 93 87 61 44 40 47 55 67 71 72 71 66 63 61 59 55 50 45 42 39 36 34 33 30 26 25 23 21 20 20 20 22 23 24 25 27 28 30 30 34 36
119 108 100 87 75 57 42 34 45 51 62 70 78 75 72 68 65 63 60 57 50 46 42 39 41 36 36 31 28 27 25 23 22 22 22 24 24 26 28 29 33 34 35 38
111 103 93 82 68 51 37 30 39 49 62 71 84 83 78 74 71 67 63 60 54 48 44 39 44 38 41 35 31 30 30 29 29 28 28 28 28 30 32 34 35 38 40 41
107 102 89 71 57 43 34 33 41 51 64 76 91 91 87 81 77 73 68 63 55 50 46 41 48 42 40 40 35 34 35 34 34 35 34 32 31 33 36 39 40 40 42 45
105 92 69 55 53 41 38 43 48 56 66 79 92 98 95 88 84 79 72 66 60 51 46 48 54 49 42 43 38 37 37 37 39 39 40 39 39 37 38 43 46 45 46 49
91 72 57 49 53 45 44 47 51 58 68 78 88 97 97 95 90 83 77 70 60 51 48 53 59 54 48 46 42 39 39 40 42 44 46 46 46 44 44 46 50 53 52 55
73 58 53 51 49 49 46 49 54 62 71 80 87 97 97 96 92 83 76 69 62 58 55 57 58 58 48 46 45 43 42 42 43 44 48 49 52 52 51 51 52 56 59 59
62 54 53 50 51 53 50 50 53 63 70 77 82 90 96 94 93 84 75 69 69 65 62 59 59 59 55 51 48 46 46 47 47 47 49 51 53 56 55 54 56 59 61 65

GFSNW_250_spd_126.txt.gz
Wind_Speed
41 41 45 48 46 41 40 39 37 39 42 45 46 48 50 52 55 56 57 61 65 63 56 50 39 29 21 15 9 9 6 5 1 2 3 6 8 9 12 14 16 18 21 22
37 32 33 36 41 40 37 37 37 39 41 42 44 46 49 51 56 58 60 65 65 66 64 58 50 36 28 23 18 12 10 7 6 4 2 2 3 7 11 15 19 24 23 27
73 38 29 27 31 32 36 36 34 36 37 36 39 42 45 48 54 57 61 65 66 68 68 64 58 50 38 29 26 23 19 15 13 11 7 3 5 9 10 17 23 25 25 32
99 71 39 31 26 25 28 33 32 32 33 32 34 37 40 44 49 52 57 61 64 65 66 66 62 59 53 42 33 30 26 23 20 15 11 10 11 9 12 22 30 34 34 40
93 92 96 43 29 25 23 25 27 28 29 30 31 32 35 38 42 46 51 54 59 61 63 65 68 64 58 55 49 39 33 28 25 22 15 13 14 8 11 16 36 38 40 44
91 94 90 90 48 31 26 24 23 26 26 27 28 28 29 33 35 39 44 48 51 56 59 62 65 67 66 63 58 56 48 37 33 31 26 19 16 16 13 18 29 37 44 54
89 89 94 88 89 42 32 28 24 21 24 23 26 26 25 26 29 31 36 40 44 48 52 56 61 62 62 66 62 62 60 53 43 38 34 26 19 17 18 21 26 36 44 52
88 89 88 88 85 84 37 32 31 26 22 22 21 24 24 21 23 27 30 33 36 40 45 49 52 56 60 62 62 58 60 60 59 50 42 33 27 20 18 21 26 31 37 48
87 91 83 96 88 81 80 34 33 33 27 23 21 20 22 21 20 21 24 26 29 32 37 42 45 49 52 56 57 58 60 60 57 59 58 44 36 29 23 18 23 23 30 40
94 96 92 100 99 88 70 71 31 36 35 29 24 22 19 21 21 18 18 21 22 25 28 32 35 40 43 46 49 51 53 56 58 56 56 58 47 37 30 21 21 25 25 33
94 100 100 103 103 91 72 66 45 30 39 38 33 27 24 21 21 21 17 15 18 20 21 24 28 31 35 37 39 44 46 46 49 52 56 55 51 56 49 31 20 23 33 28
93 99 104 104 105 86 77 62 57 33 33 41 39 35 29 26 23 21 21 17 14 16 19 20 21 24 27 29 32 34 37 39 40 43 46 47 47 51 46 43 42 30 25 21
94 104 104 105 104 95 73 63 56 37 33 38 43 42 38 32 28 26 23 22 18 15 16 17 17 18 19 21 24 27 29 30 32 34 35 38 38 39 39 39 38 37 32 27
91 106 112 104 102 106 75 65 57 42 32 38 43 47 45 41 34 32 28 26 23 20 17 17 17 17 17 17 19 20 21 23 24 26 27 28 30 29 30 32 29 29 27 26
99 102 112 118 114 109 76 70 55 42 31 36 43 48 51 48 45 38 34 31 29 25 23 19 18 17 16 16 16 16 16 16 18 21 20 21 21 22 24 25 24 22 19 19
101 110 111 114 115 93 81 72 60 41 32 31 43 47 53 55 51 47 41 36 34 32 28 24 21 18 17 17 17 16 14 14 14 13 15 16 16 17 17 16 17 17 19 18
106 112 117 123 118 102 82 77 68 46 33 32 38 47 52 58 57 54 49 44 39 37 35 30 26 23 21 18 18 15 15 14 13 13 12 9 10 12 14 15 15 15 16 16
113 117 122 120 122 106 85 80 71 52 36 34 34 46 54 59 63 60 56 52 45 43 40 37 31 28 28 24 20 18 16 15 15 15 14 13 11 10 10 11 12 13 16 17
119 120 120 120 127 105 91 83 76 58 39 35 41 44 57 59 65 66 62 58 54 48 46 43 35 33 34 30 27 23 21 20 18 17 17 15 14 15 15 15 15 17 17 19
121 124 124 128 129 106 97 88 80 62 42 40 46 50 55 62 66 70 68 65 60 54 51 48 41 42 34 35 35 31 28 26 24 21 19 19 18 19 21 21 22 23 23 24
126 121 128 128 121 108 95 89 84 69 49 45 51 58 58 64 67 73 74 70 66 60 57 48 44 49 40 38 39 37 34 33 29 28 25 25 24 24 25 27 28 28 29 30
129 128 127 123 123 108 97 94 87 77 59 46 55 64 67 65 70 75 79 78 72 65 59 53 47 57 42 43 43 39 38 38 36 32 31 32 33 32 30 30 31 33 35 37
130 130 132 125 122 109 98 94 82 79 69 54 55 65 70 70 71 72 80 82 76 69 62 56 52 58 50 48 47 42 41 41 40 40 36 35 35 36 36 37 38 39 39 41
135 131 130 128 124 108 100 95 85 82 74 63 54 62 70 71 74 72 74 80 78 68 60 57 61 59 56 51 48 49 44 44 43 43 40 38 38 40 40 42 44 44 45 46
135 137 129 141 120 107 103 94 85 80 73 63 56 58 65 71 70 69 72 74 74 67 64 65 67 64 61 57 49 50 51 49 47 45 44 40 40 42 44 46 50 53 53 52
141 134 141 122 113 102 102 93 85 78 68 62 55 54 60 65 67 65 69 69 73 77 74 73 72 70 64 64 58 54 54 52 50 49 47 43 42 45 47 49 53 55 58 61
142 134 127 118 108 104 99 90 84 77 67 63 56 47 60 62 59 58 64 70 83 87 83 80 77 75 68 66 65 60 57 56 54 51 49 48 45 46 50 53 56 57 59 60

GFSNW_250_spd_129.txt.gz
Wind_Speed
93 87 85 64 49 48 44 46 49 47 50 50 55 58 59 62 64 67 71 71 73 69 62 56 48 42 33 26 22 19 13 14 11 8 6 5 7 10 9 7 5 7 7 9
95 91 85 77 62 46 41 42 40 43 44 47 49 51 55 59 62 65 67 69 71 73 70 65 62 51 40 34 27 22 20 17 12 11 9 5 3 3 3 5 9 14 17 19
96 93 91 79 72 65 44 39 40 38 39 41 43 45 48 53 57 59 63 67 68 70 70 69 67 63 56 44 37 31 27 21 18 15 12 9 7 4 3 11 18 20 20 27
90 95 94 85 73 65 60 41 36 36 34 34 37 39 42 45 50 54 57 61 64 68 69 68 69 68 66 61 46 37 33 26 22 14 16 15 11 6 6 17 28 32 28 40
87 89 96 88 84 70 58 53 36 33 32 30 30 34 35 38 42 46 49 53 57 62 65 65 67 69 67 65 63 49 41 34 25 20 20 18 13 10 7 21 27 32 38 40
85 88 90 92 88 75 57 51 41 29 29 30 28 26 30 31 34 38 41 45 48 52 57 61 64 66 67 67 66 63 54 45 35 26 22 19 14 14 12 29 28 37 48 47
83 86 92 93 99 83 64 51 41 31 24 27 28 25 24 26 27 30 35 38 41 45 49 53 56 61 63 65 65 67 61 57 45 34 28 20 15 18 21 28 34 35 49 48
79 83 88 92 100 93 73 57 44 34 25 22 24 25 23 21 23 24 26 31 33 37 41 44 49 52 55 59 61 64 61 61 59 47 36 29 14 16 19 27 30 34 40 49
81 83 84 89 96 97 86 65 56 46 30 22 23 24 25 22 19 20 20 22 26 30 35 38 41 44 48 52 54 57 59 58 61 60 50 37 26 19 20 20 21 31 33 39
84 81 83 86 91 101 89 80 66 59 43 23 21 24 27 26 22 18 19 18 18 22 27 30 34 37 39 42 46 50 51 55 57 55 58 58 43 29 25 23 18 17 21 31
87 82 84 88 91 93 94 81 76 68 61 42 22 23 27 28 26 22 18 18 16 14 18 23 26 28 31 34 37 40 43 46 50 51 54 54 51 44 29 22 18 12 11 13
86 87 80 87 88 94 93 92 83 91 72 60 39 25 27 30 30 28 24 19 19 15 13 14 18 22 24 26 29 32 34 37 39 42 44 46 47 48 42 34 30 20 15 10
88 89 82 86 88 93 96 95 90 94 100 70 58 36 27 31 34 33 29 24 22 21 15 13 14 15 17 19 20 22 24 27 29 30 32 34 37 37 38 37 35 29 23 17
87 92 86 87 89 92 97 101 94 100 97 85 69 50 40 32 36 38 36 33 28 25 23 17 14 13 14 12 14 15 16 17 19 21 21 22 24 25 26 27 28 26 24 24
93 92 91 91 92 98 99 101 98 102 113 100 86 67 48 41 39 41 42 40 36 29 29 26 19 15 14 14 12 12 11 10 10 10 11 12 14 15 16 17 17 18 15 13
100 98 95 97 97 102 98 100 106 103 110 119 108 72 63 47 46 45 46 45 43 39 34 32 30 21 16 15 15 14 12 10 7 6 7 5 3 6 7 7 9 10 9 10
101 103 97 97 101 103 102 106 110 112 113 118 108 84 73 53 46 50 49 51 49 45 41 38 35 30 24 21 19 19 17 13 13 10 9 8 7 7 2 3 4 4 4 3
105 105 98 100 105 107 106 110 112 113 115 113 111 95 79 65 45 48 53 51 53 51 46 45 41 33 33 33 24 23 21 18 16 16 16 15 11 11 10 9 8 5 4 5
106 110 104 105 111 111 112 112 114 114 119 111 116 102 84 71 49 42 52 56 54 54 53 52 44 40 39 41 31 30 26 24 22 19 20 19 19 16 15 15 13 12 12 12
112 115 110 110 113 116 116 116 116 118 123 116 119 104 89 77 58 44 42 54 60 57 58 56 48 42 53 45 39 35 32 30 28 25 24 23 22 21 20 20 20 21 21 20
114 116 115 114 117 117 119 117 119 121 125 118 124 105 90 86 73 51 41 45 56 60 63 61 52 52 62 52 46 44 40 37 34 32 30 27 27 27 27 27 26 27 27 27
120 119 119 116 122 120 123 121 122 125 128 123 133 109 95 86 80 59 43 41 47 57 64 66 57 62 69 59 54 52 46 42 40 37 35 34 33 32 34 34 33 32 32 32
121 119 121 122 124 123 127 125 128 128 128 122 130 105 95 88 79 62 47 43 43 53 60 65 64 72 77 67 60 57 51 46 45 41 38 38 37 36 36 38 38 39 39 38
121 119 123 126 125 128 130 130 133 134 133 133 116 98 93 89 75 61 48 44 42 46 53 70 76 77 79 76 66 61 57 52 51 47 43 42 40 38 38 39 38 39 41 43
125 123 124 128 132 131 133 132 132 136 141 132 111 97 93 85 72 57 47 43 40 43 56 77 81 80 82 81 74 68 64 58 54 52 49 46 44 42 41 40 40 41 43 46
131 129 129 132 133 137 137 133 134 141 135 119 106 97 88 75 64 50 43 41 45 50 57 67 77 82 83 82 81 74 69 63 60 58 55 52 50 47 45 43 43 43 44 46
135 133 129 137 136 136 134 138 141 137 125 111 104 92 79 62 54 52 43 46 48 48 53 61 65 76 82 82 83 81 75 70 66 64 61 57 55 53 51 47 45 46 47 47

GFSNW_250_spd_135.txt.gz
Wind_Speed
91 94 95 99 103 103 112 105 85 79 73 62 46 41 43 46 50 54 58 60 64 68 71 68 60 43 31 26 20 15 12 11 12 13 12 13 12 11 4 2 4 6 7 2
84 91 91 95 97 101 103 105 108 91 82 72 63 49 41 42 45 49 53 56 58 63 67 68 68 59 44 32 24 22 17 15 14 15 14 14 12 10 10 8 15 28 37 30
81 85 90 92 92 94 99 101 102 104 104 85 77 65 51 40 40 43 46 51 54 56 60 63 64 66 58 44 34 26 23 17 17 18 16 12 15 18 26 25 35 43 37 45
83 80 86 86 91 91 92 96 99 102 99 109 93 79 65 54 39 38 40 44 48 51 53 57 59 63 64 56 43 32 24 17 16 16 12 13 18 25 38 38 44 43 46 53
74 75 81 79 87 90 87 91 95 99 100 109 100 105 78 64 54 38 34 37 41 46 48 49 53 55 59 61 51 35 23 21 15 15 11 25 15 44 44 43 49 52 54 44
75 75 79 80 82 83 87 87 89 95 98 98 102 100 102 72 60 50 39 32 34 38 42 44 46 50 53 56 56 42 27 21 17 13 13 18 32 40 46 45 49 52 50 44
74 73 76 81 82 82 85 88 86 86 95 97 99 103 100 97 70 59 46 36 31 32 35 40 41 43 46 49 52 52 38 23 20 14 17 21 28 32 40 46 52 45 43 44
72 73 78 77 85 81 84 85 85 86 87 95 95 102 101 98 88 71 59 44 33 28 29 32 38 38 39 42 46 48 45 26 26 19 14 7 18 34 41 41 45 45 43 40
69 73 75 80 84 85 87 87 88 87 84 90 97 95 98 102 90 95 71 58 42 31 26 26 29 34 34 36 38 41 45 37 30 26 20 15 12 23 26 31 33 45 41 34
68 72 75 78 82 88 87 91 91 93 88 89 94 95 95 96 104 86 87 68 52 35 27 22 22 25 30 30 30 33 35 36 36 36 27 24 13 12 12 23 18 34 36 30
68 68 72 78 80 81 85 91 93 95 88 93 98 93 95 94 100 88 90 74 66 46 32 26 20 21 22 26 27 27 29 32 37 35 33 28 21 10 8 10 6 24 18 20
71 74 75 78 80 80 83 91 95 100 94 96 99 98 94 90 91 99 93 78 67 59 39 28 25 19 18 18 22 22 22 23 26 27 27 27 27 20 15 6 7 7 8 18
67 73 78 77 81 83 84 89 94 96 98 98 102 98 95 90 93 94 97 82 77 62 55 33 26 26 19 17 16 19 16 15 17 18 19 20 18 20 22 21 18 13 8 6
66 73 79 79 84 86 87 88 92 96 97 98 101 99 92 98 95 95 93 85 80 69 59 47 29 28 27 21 19 15 15 11 8 9 10 11 13 14 14 15 16 19 18 17
73 78 81 81 84 86 83 86 90 95 96 101 100 100 99 100 103 101 96 93 84 71 63 51 38 27 32 31 28 21 17 16 11 6 3 1 3 6 7 8 9 10 11 13
77 76 79 84 84 86 86 89 89 91 95 100 100 99 105 104 103 102 104 98 87 77 66 56 44 31 30 40 43 26 26 24 19 16 11 8 5 4 5 6 6 4 5 5
80 79 79 84 82 86 86 88 89 92 92 100 101 99 105 104 104 106 108 105 90 86 68 54 48 40 30 41 47 34 35 33 27 23 21 16 14 12 9 9 9 8 7 4
76 80 84 86 87 87 89 92 94 93 95 100 102 100 101 104 107 110 111 109 98 92 75 55 49 43 39 43 43 46 41 44 36 31 30 26 23 20 17 17 16 15 14 14
84 86 90 90 88 88 88 93 94 94 101 101 102 106 104 107 108 112 114 111 109 101 83 60 48 49 39 37 44 46 48 50 50 41 41 37 33 28 26 24 23 21 20 20
86 92 91 93 93 90 91 93 95 95 100 101 103 107 107 110 111 113 114 114 112 102 86 64 54 48 45 41 36 44 48 54 56 54 49 45 41 38 35 31 27 28 26 26
91 94 93 94 94 88 91 94 97 99 102 103 107 105 107 112 114 112 113 113 110 104 87 71 62 53 50 50 47 42 41 52 58 62 60 53 49 47 43 38 37 34 32 32
94 98 96 96 98 94 97 96 99 103 106 106 108 106 108 111 111 109 113 111 108 101 90 77 68 61 60 56 53 48 46 42 55 64 67 64 58 54 51 47 46 44 41 37
102 100 95 99 100 104 97 100 103 110 113 115 113 113 111 114 117 115 113 113 107 97 89 78 73 64 64 61 57 53 49 45 46 57 69 72 66 61 57 57 53 50 48 46
110 104 101 100 107 104 103 106 111 116 116 120 122 118 120 118 119 117 115 114 112 101 93 80 75 70 65 64 59 54 52 48 46 51 60 74 78 70 66 63 60 57 54 53
117 116 113 107 109 115 114 115 118 123 125 126 129 127 124 122 120 118 117 119 113 104 98 83 77 73 69 69 64 57 53 47 45 48 57 64 76 80 75 71 67 63 59 59
125 118 115 113 116 118 120 117 119 121 127 130 133 134 128 127 122 121 123 120 109 102 98 90 84 78 71 69 65 58 54 49 45 45 55 62 67 79 82 77 72 69 65 63
131 123 121 121 124 125 126 122 121 124 127 131 136 133 131 128 123 125 124 112 104 101 100 91 87 81 74 65 61 59 54 52 46 45 50 60 64 71 83 86 81 77 74 69

GFSNW_250_spd_138.txt.gz
Wind_Speed
78 82 87 92 99 100 101 106 108 108 112 107 101 87 71 54 48 49 51 54 57 62 65 65 62 48 37 27 17 11 4 4 6 11 13 15 14 12 11 12 9 3 11 18
77 79 81 85 91 96 101 99 106 109 107 107 105 106 89 77 57 49 48 50 52 56 60 63 64 63 49 38 27 18 12 10 12 16 18 18 17 16 16 17 12 19 32 26
73 75 79 78 85 90 93 101 100 106 105 104 107 114 102 89 80 62 49 49 50 50 54 58 61 62 60 48 39 28 20 19 16 17 20 26 26 24 19 15 23 35 34 35
68 77 73 81 80 83 92 91 96 102 104 101 102 108 111 99 82 80 70 51 46 48 48 51 54 58 61 59 50 37 23 16 16 16 25 21 24 24 27 32 32 30 35 29
67 69 74 76 82 85 86 89 97 96 99 101 99 104 105 109 102 84 84 72 50 43 44 45 47 51 54 59 55 40 25 15 13 15 20 25 28 27 36 31 32 37 34 33
66 66 68 71 76 84 87 87 90 94 95 97 99 98 101 103 109 98 91 85 69 49 41 40 42 43 46 49 52 45 27 20 9 10 16 19 24 36 36 36 33 32 33 32
64 63 62 67 74 77 81 87 86 89 93 93 96 97 98 99 102 106 98 89 75 68 45 37 35 37 40 42 45 50 34 19 18 9 8 20 27 26 31 31 28 26 29 24
61 63 62 61 69 76 79 83 85 89 88 91 93 96 98 96 98 102 105 91 85 66 61 39 32 31 33 37 39 43 42 22 16 10 1 3 18 26 30 27 23 25 27 22
66 66 60 60 67 73 76 79 83 86 87 88 92 94 95 95 98 96 99 101 93 75 69 55 33 28 28 28 32 33 35 31 21 19 12 6 17 17 25 25 26 19 14 20
66 70 63 60 64 71 74 75 80 83 84 87 90 92 91 94 95 95 96 98 100 92 74 61 49 28 24 24 24 28 29 30 31 25 17 8 10 11 12 26 26 19 18 14
65 61 60 57 61 70 74 73 77 81 82 81 87 88 91 90 95 95 94 99 97 100 87 68 56 40 23 21 21 20 23 25 27 25 21 14 10 3 9 10 14 28 17 15
62 63 59 57 56 64 71 74 77 78 79 78 83 86 89 89 89 92 92 97 98 99 96 75 59 51 33 21 20 19 17 18 19 19 17 16 16 12 4 7 10 19 24 17
62 57 53 60 59 66 70 72 76 79 81 80 82 84 86 87 90 91 90 94 99 99 99 81 65 55 49 34 19 18 19 15 14 16 12 12 12 13 10 5 2 9 13 19
57 59 56 60 62 65 68 70 75 79 82 84 86 85 85 87 88 90 92 90 98 101 97 87 71 63 51 43 31 17 20 21 18 12 14 12 7 8 7 3 6 8 7 3
58 60 65 65 64 65 68 70 75 78 84 82 87 85 86 84 88 86 91 92 98 99 99 91 87 70 59 49 36 17 25 21 23 21 17 16 15 10 7 6 5 0 2 3
69 69 69 68 66 69 73 69 72 77 81 84 87 84 83 84 86 87 88 93 96 99 98 96 87 79 58 55 46 35 25 29 27 26 24 21 18 20 17 11 10 9 7 5
71 73 73 79 73 73 71 73 72 76 81 83 86 88 83 89 87 88 89 94 97 98 101 100 90 86 67 53 51 44 39 35 31 31 32 33 27 26 23 21 19 17 15 14
72 75 79 80 75 77 77 75 75 76 80 84 89 92 89 93 90 91 94 97 99 102 105 106 97 87 84 68 51 45 46 43 41 38 36 40 37 38 33 28 29 27 25 22
82 83 81 74 75 79 80 77 75 77 80 86 88 98 99 97 94 96 100 103 104 106 111 108 101 90 84 81 63 50 44 43 44 42 41 40 46 44 44 40 37 34 32 31
79 81 85 85 86 90 89 85 84 90 84 86 92 100 101 102 100 101 103 105 109 109 114 115 107 96 90 80 75 62 50 44 44 46 45 46 47 49 51 51 48 45 40 39
95 95 93 94 94 93 95 92 92 89 90 92 95 99 100 105 108 105 107 108 112 113 113 117 110 102 92 85 78 69 64 50 45 47 48 47 50 53 52 58 58 54 51 47
108 106 104 99 98 96 96 91 92 94 95 97 100 101 101 105 110 108 109 110 111 115 116 116 115 102 92 90 84 73 70 61 48 46 48 48 50 52 58 57 64 65 61 55
116 116 116 114 108 103 100 95 96 99 98 99 103 108 110 110 112 113 112 111 114 114 114 123 110 98 92 90 83 79 72 66 59 53 51 49 49 53 55 63 64 69 68 65
125 125 123 118 112 108 103 98 99 102 103 104 107 109 111 114 117 118 118 116 118 115 118 114 108 100 90 90 85 81 77 75 67 58 55 53 52 52 57 59 65 68 72 72
130 130 128 115 114 113 107 104 103 106 106 107 107 111 114 115 116 119 116 116 120 120 121 111 103 98 90 86 85 82 79 77 67 61 57 58 54 55 57 62 63 67 71 76
141 142 129 119 111 112 111 109 106 106 108 107 109 113 115 116 118 120 115 113 120 121 112 108 105 98 91 90 87 83 76 67 64 61 60 59 60 58 57 61 67 65 69 71
151 140 131 132 122 116 115 112 110 110 111 111 115 117 116 119 118 116 112 116 123 115 115 110 106 103 95 91 90 83 73 65 64 63 63 64 61 60 61 60 65 67 68 72

GFSNW_250_spd_141.txt.gz
Wind_Speed
75 77 73 78 84 89 91 96 99 103 102 106 106 105 95 82 75 76 62 51 52 55 58 60 63 61 42 31 23 17 10 7 8 11 15 16 15 13 11 9 6 7 3 4
72 76 77 75 79 82 87 92 93 98 101 101 104 106 105 99 85 78 77 69 50 49 52 55 58 62 54 41 28 21 14 14 16 20 21 20 13 7 6 8 6 11 14 15
68 69 74 77 74 77 81 86 88 91 98 101 103 103 105 105 106 90 80 74 68 48 47 50 54 57 59 51 36 25 18 15 13 15 13 13 16 15 19 15 18 19 13 15
62 69 69 75 69 72 73 80 84 86 90 97 97 99 102 101 106 107 90 77 71 68 46 44 48 52 55 56 42 32 23 16 11 10 14 17 18 16 24 20 17 13 11 11
60 65 68 69 68 67 70 75 81 82 85 91 94 100 97 98 102 103 104 90 73 67 65 42 40 43 47 51 50 31 25 20 20 10 10 14 20 21 22 16 10 13 6 13
58 62 62 65 63 65 66 71 74 78 84 85 86 94 96 96 97 100 102 102 93 71 65 62 37 36 38 42 46 38 26 21 19 6 9 16 16 16 18 15 10 6 7 11
56 60 62 64 63 64 61 66 71 74 78 79 81 86 92 93 95 96 99 101 100 98 73 64 58 34 33 35 38 40 35 21 18 14 9 11 9 15 12 15 12 7 3 3
55 54 59 60 61 61 58 62 67 68 71 78 81 81 83 89 94 93 97 98 100 98 96 75 60 58 32 31 34 37 37 33 20 11 3 10 13 14 16 17 14 14 7 3
54 54 58 57 58 58 63 64 68 70 67 74 77 81 83 86 87 93 92 96 94 98 95 96 68 60 54 30 28 31 31 32 31 20 14 11 5 14 20 15 19 15 12 7
55 50 52 58 55 52 59 62 64 66 70 72 76 77 83 80 84 87 90 91 96 94 98 96 81 64 58 49 28 25 27 27 27 26 21 14 10 11 13 20 21 16 15 15
52 52 52 55 53 52 54 64 65 65 72 71 67 75 79 81 84 82 89 90 94 94 92 95 97 72 62 55 45 26 23 23 22 20 19 20 18 11 8 17 23 24 27 25
53 50 51 54 56 54 55 61 66 67 70 71 68 71 71 77 82 89 86 87 92 94 93 93 99 93 77 64 51 48 34 21 22 23 20 15 13 14 13 10 12 20 21 22
56 52 54 53 55 55 54 61 65 70 69 73 70 68 68 77 81 89 84 87 91 92 94 94 96 91 89 74 66 53 44 39 25 19 19 20 18 13 13 12 13 12 15 20
58 51 53 54 55 54 56 59 62 67 72 71 74 71 69 74 80 84 84 85 90 97 97 93 96 92 91 85 68 63 53 43 39 32 26 21 21 20 16 13 13 11 12 9
63 60 57 58 61 57 57 57 63 67 68 72 78 78 78 78 77 84 85 87 92 97 97 94 95 95 91 85 81 63 58 49 42 36 34 31 25 25 25 21 17 16 14 12
65 69 60 60 61 60 59 57 60 62 66 76 77 81 81 79 82 82 79 86 88 93 97 96 95 94 92 91 85 72 61 51 43 39 36 34 33 33 30 27 26 23 21 19
74 71 63 64 68 70 67 59 67 72 76 79 80 82 85 85 84 82 79 83 88 89 96 97 95 95 94 91 91 83 62 55 49 41 38 36 32 31 36 39 33 31 29 27
74 69 65 74 73 75 78 75 69 72 78 82 85 86 87 87 85 83 82 83 87 88 94 98 98 96 97 96 91 82 69 52 44 42 40 35 36 34 32 38 45 41 38 37
83 81 77 77 78 73 75 83 78 78 84 87 86 88 89 90 89 87 86 87 87 88 94 95 98 101 101 98 94 82 66 58 40 34 38 39 38 38 38 34 38 50 50 46
90 93 87 85 82 85 85 86 83 80 86 86 85 90 92 92 90 89 91 92 90 89 91 97 97 104 96 99 99 91 78 69 48 43 41 38 39 39 39 41 39 41 50 57
98 97 98 94 92 92 93 96 89 86 87 88 88 95 94 93 94 94 94 94 95 91 92 97 97 105 104 100 101 96 91 68 58 54 50 44 47 45 38 42 43 44 45 52
110 108 107 106 104 103 98 95 95 97 94 94 97 96 94 93 96 101 99 97 96 93 93 95 98 107 106 105 104 107 97 89 67 62 60 57 48 46 48 44 45 48 48 49
119 120 118 116 114 108 101 101 100 100 104 104 102 102 102 101 101 103 104 102 100 98 94 96 106 109 103 104 104 107 105 92 83 69 67 64 59 52 49 50 48 49 53 56
130 131 133 128 121 113 111 106 105 106 108 110 109 109 107 106 103 106 104 103 100 98 94 94 106 106 106 106 107 111 108 96 90 82 73 71 68 64 57 57 54 54 57 58
143 142 141 131 122 122 116 116 113 111 113 113 113 111 111 111 108 106 106 102 98 98 102 102 104 105 106 106 111 111 111 101 96 87 79 76 75 70 68 63 57 58 61 64
148 150 146 134 129 125 126 125 122 119 119 119 117 115 119 118 113 108 104 101 97 100 108 106 108 104 107 110 110 114 109 105 102 88 86 79 78 80 76 70 63 60 64 67
160 150 140 136 131 128 130 128 127 129 127 122 120 117 117 117 112 106 106 106 105 106 107 104 102 107 109 111 112 109 107 108 106 94 91 86 85 81 77 71 66 66 67 68